Time,TemperatureF,DewpointF,PressureIn,WindDirection,WindDirectionDegrees,WindSpeedMPH,WindSpeedGustMPH,Humidity,HourlyPrecipIn,Conditions,Clouds,dailyrainin,SoftwareType,DateUTC
2013-04-04 00:00:00,46.0,28.9,30.25,ENE,65,0.0,0.0,51,0.00,CLR,,0.00,WeatherDisplay:10.37,2013-04-04 04:00:00,
2013-04-04 00:05:00,45.6,29.4,30.25,ENE,65,0.0,0.0,53,0.00,CLR,,0.00,WeatherDisplay:10.37,2013-04-04 04:05:00,
2013-04-04 00:10:00,45.4,30.6,30.24,ENE,65,0.0,0.0,56,0.00,CLR,,0.00,WeatherDisplay:10.37,2013-04-04 04:10:00,
2013-04-04 00:15:00,45.3,30.5,30.24,ENE,66,0.0,0.0,56,0.00,CLR,,0.00,WeatherDisplay:10.37,2013-04-04 04:15:00,
2013-04-04 00:20:00,45.1,29.9,30.24,ENE,67,0.0,0.0,55,0.00,CLR,,0.00,WeatherDisplay:10.37,2013-04-04 04:20:00,
2013-04-04 00:22:00,45.1,30.3,30.24,ENE,65,0.0,0.0,56,0.00,CLR,,0.00,WeatherDisplay:10.37,2013-04-04 04:22:00,
2013-04-04 00:25:00,45.0,30.2,30.24,ENE,67,0.0,0.0,56,0.00,CLR,,0.00,WeatherDisplay:10.37,2013-04-04 04:25:00,
2013-04-04 00:26:00,45.0,29.3,30.24,ENE,65,0.0,0.0,54,0.00,CLR,,0.00,WeatherDisplay:10.37,2013-04-04 04:26:00,
2013-04-04 00:27:00,44.9,29.2,30.24,ENE,65,0.0,0.0,54,0.00,CLR,,0.00,WeatherDisplay:10.37,2013-04-04 04:27:00,
2013-04-04 00:31:00,44.9,29.2,30.24,ENE,66,0.0,0.0,54,0.00,CLR,,0.00,WeatherDisplay:10.37,2013-04-04 04:31:00,
2013-04-04 00:32:00,44.9,29.7,30.24,ENE,66,0.0,0.0,55,0.00,CLR,,0.00,WeatherDisplay:10.37,2013-04-04 04:32:00,
2013-04-04 00:33:00,44.8,30.0,30.24,ENE,65,0.0,0.0,56,0.00,CLR,,0.00,WeatherDisplay:10.37,2013-04-04 04:33:00,
2013-04-04 00:36:00,44.8,30.9,30.24,ENE,67,0.0,0.0,58,0.00,CLR,,0.00,WeatherDisplay:10.37,2013-04-04 04:36:00,
2013-04-04 00:37:00,44.8,29.2,30.24,ENE,67,0.0,0.0,54,0.00,CLR,,0.00,WeatherDisplay:10.37,2013-04-04 04:37:00,
2013-04-04 00:38:00,44.7,29.1,30.24,ENE,66,0.0,0.0,54,0.00,CLR,,0.00,WeatherDisplay:10.37,2013-04-04 04:38:00,
2013-04-04 00:41:00,44.6,29.0,30.24,ENE,65,0.0,0.0,54,0.00,CLR,,0.00,WeatherDisplay:10.37,2013-04-04 04:41:00,
2013-04-04 00:42:00,44.6,29.0,30.24,ENE,65,0.0,0.0,54,0.00,CLR,,0.00,WeatherDisplay:10.37,2013-04-04 04:42:00,
2013-04-04 00:43:00,44.6,28.5,30.24,ENE,66,0.0,0.0,53,0.00,CLR,,0.00,WeatherDisplay:10.37,2013-04-04 04:43:00,
2013-04-04 00:46:00,44.7,28.6,30.24,ENE,65,0.0,0.0,53,0.00,CLR,,0.00,WeatherDisplay:10.37,2013-04-04 04:46:00,
2013-04-04 00:47:00,44.7,29.1,30.24,ENE,66,0.0,0.0,54,0.00,CLR,,0.00,WeatherDisplay:10.37,2013-04-04 04:47:00,
2013-04-04 00:48:00,44.7,28.6,30.24,ENE,65,0.0,0.0,53,0.00,CLR,,0.00,WeatherDisplay:10.37,2013-04-04 04:48:00,
2013-04-04 00:52:00,44.8,30.0,30.23,ENE,65,0.0,0.0,56,0.00,CLR,,0.00,WeatherDisplay:10.37,2013-04-04 04:52:00,
2013-04-04 00:53:00,44.8,30.5,30.23,ENE,65,0.0,0.0,57,0.00,CLR,,0.00,WeatherDisplay:10.37,2013-04-04 04:53:00,
2013-04-04 00:57:00,44.7,30.0,30.24,ENE,66,0.0,0.0,56,0.00,CLR,,0.00,WeatherDisplay:10.37,2013-04-04 04:57:00,
2013-04-04 00:58:00,44.7,30.0,30.24,ENE,65,0.0,0.0,56,0.00,CLR,,0.00,WeatherDisplay:10.37,2013-04-04 04:58:00,
2013-04-04 01:02:00,44.6,30.7,30.24,ENE,66,0.0,0.0,58,0.00,CLR,,0.00,WeatherDisplay:10.37,2013-04-04 05:02:00,
2013-04-04 01:03:00,44.5,30.6,30.24,ENE,66,0.0,0.0,58,0.00,CLR,,0.00,WeatherDisplay:10.37,2013-04-04 05:03:00,
2013-04-04 01:04:00,44.5,30.6,30.24,ENE,65,0.0,0.0,58,0.00,CLR,,0.00,WeatherDisplay:10.37,2013-04-04 05:04:00,
2013-04-04 01:08:00,44.4,31.0,30.24,ENE,67,0.0,0.0,59,0.00,CLR,,0.00,WeatherDisplay:10.37,2013-04-04 05:08:00,
2013-04-04 01:09:00,44.3,31.3,30.24,ENE,65,0.0,0.0,60,0.00,CLR,,0.00,WeatherDisplay:10.37,2013-04-04 05:09:00,
2013-04-04 01:13:00,44.1,30.3,30.24,ENE,65,0.0,0.0,58,0.00,CLR,,0.00,WeatherDisplay:10.37,2013-04-04 05:13:00,
2013-04-04 01:14:00,44.1,30.7,30.24,ENE,65,0.0,0.0,59,0.00,CLR,,0.00,WeatherDisplay:10.37,2013-04-04 05:14:00,
2013-04-04 01:18:00,44.0,30.6,30.24,ENE,65,0.0,0.0,59,0.00,CLR,,0.00,WeatherDisplay:10.37,2013-04-04 05:18:00,
2013-04-04 01:19:00,43.9,30.1,30.24,ENE,65,0.0,0.0,58,0.00,CLR,,0.00,WeatherDisplay:10.37,2013-04-04 05:19:00,
2013-04-04 01:20:00,43.9,30.5,30.24,ENE,65,0.0,0.0,59,0.00,CLR,,0.00,WeatherDisplay:10.37,2013-04-04 05:20:00,
2013-04-04 01:23:00,43.9,30.5,30.24,ENE,65,0.0,0.0,59,0.00,CLR,,0.00,WeatherDisplay:10.37,2013-04-04 05:23:00,
2013-04-04 01:24:00,43.9,30.9,30.24,ENE,65,0.0,0.0,60,0.00,CLR,,0.00,WeatherDisplay:10.37,2013-04-04 05:24:00,
2013-04-04 01:25:00,43.9,31.3,30.24,ENE,65,0.0,0.0,61,0.00,CLR,,0.00,WeatherDisplay:10.37,2013-04-04 05:25:00,
2013-04-04 01:28:00,43.8,30.8,30.24,ENE,65,0.0,0.0,60,0.00,CLR,,0.00,WeatherDisplay:10.37,2013-04-04 05:28:00,
2013-04-04 01:29:00,43.8,30.8,30.24,ENE,65,0.0,0.0,60,0.00,CLR,,0.00,WeatherDisplay:10.37,2013-04-04 05:29:00,
2013-04-04 01:30:00,43.8,31.6,30.24,ENE,65,0.0,0.0,62,0.00,CLR,,0.00,WeatherDisplay:10.37,2013-04-04 05:30:00,
2013-04-04 01:31:00,43.8,31.6,30.24,ENE,65,0.0,0.0,62,0.00,CLR,,0.00,WeatherDisplay:10.37,2013-04-04 05:31:00,
2013-04-04 01:34:00,43.7,31.9,30.24,ENE,65,0.0,0.0,63,0.00,CLR,,0.00,WeatherDisplay:10.37,2013-04-04 05:34:00,
2013-04-04 01:35:00,43.7,31.5,30.24,ENE,65,0.0,0.0,62,0.00,CLR,,0.00,WeatherDisplay:10.37,2013-04-04 05:35:00,
2013-04-04 01:36:00,43.6,31.8,30.24,ENE,65,0.0,0.0,63,0.00,CLR,,0.00,WeatherDisplay:10.37,2013-04-04 05:36:00,
2013-04-04 01:39:00,43.5,31.3,30.24,ENE,65,0.0,0.0,62,0.00,CLR,,0.00,WeatherDisplay:10.37,2013-04-04 05:39:00,
2013-04-04 01:40:00,43.4,31.2,30.24,ENE,65,0.0,0.0,62,0.00,CLR,,0.00,WeatherDisplay:10.37,2013-04-04 05:40:00,
2013-04-04 01:41:00,43.4,31.2,30.23,ENE,65,0.0,0.0,62,0.00,CLR,,0.00,WeatherDisplay:10.37,2013-04-04 05:41:00,
2013-04-04 01:42:00,43.3,30.7,30.23,ENE,65,0.0,0.0,61,0.00,CLR,,0.00,WeatherDisplay:10.37,2013-04-04 05:42:00,
2013-04-04 01:44:00,43.3,31.1,30.23,ENE,65,0.0,0.0,62,0.00,CLR,,0.00,WeatherDisplay:10.37,2013-04-04 05:44:00,
2013-04-04 01:45:00,43.3,30.7,30.23,ENE,65,0.0,0.0,61,0.00,CLR,,0.00,WeatherDisplay:10.37,2013-04-04 05:45:00,
2013-04-04 01:46:00,43.3,30.7,30.23,ENE,65,0.0,0.0,61,0.00,CLR,,0.00,WeatherDisplay:10.37,2013-04-04 05:46:00,
2013-04-04 01:47:00,43.3,29.9,30.23,ENE,65,0.0,0.0,59,0.00,CLR,,0.00,WeatherDisplay:10.37,2013-04-04 05:47:00,
2013-04-04 01:50:00,43.3,30.3,30.24,ENE,65,0.0,0.0,60,0.00,CLR,,0.00,WeatherDisplay:10.37,2013-04-04 05:50:00,
2013-04-04 01:51:00,43.4,29.6,30.24,ENE,65,0.0,0.0,58,0.00,CLR,,0.00,WeatherDisplay:10.37,2013-04-04 05:51:00,
2013-04-04 01:52:00,43.4,28.7,30.24,ENE,65,0.0,0.0,56,0.00,CLR,,0.00,WeatherDisplay:10.37,2013-04-04 05:52:00,
2013-04-04 01:55:00,43.7,28.6,30.24,ENE,65,2.3,0.0,55,0.00,CLR,,0.00,WeatherDisplay:10.37,2013-04-04 05:55:00,
2013-04-04 01:57:00,43.8,29.5,30.24,ENE,65,0.0,0.0,57,0.00,CLR,,0.00,WeatherDisplay:10.37,2013-04-04 05:57:00,
2013-04-04 02:00:00,44.0,28.9,30.24,ENE,65,0.0,0.0,55,0.00,CLR,,0.00,WeatherDisplay:10.37,2013-04-04 06:00:00,
2013-04-04 02:02:00,44.1,29.4,30.24,ENE,65,0.0,0.0,56,0.00,CLR,,0.00,WeatherDisplay:10.37,2013-04-04 06:02:00,
2013-04-04 02:03:00,44.2,29.5,30.24,ENE,65,0.0,0.0,56,0.00,CLR,,0.00,WeatherDisplay:10.37,2013-04-04 06:03:00,
2013-04-04 02:05:00,44.3,28.2,30.24,ENE,65,0.0,0.0,53,0.00,CLR,,0.00,WeatherDisplay:10.37,2013-04-04 06:05:00,
2013-04-04 02:06:00,44.3,28.7,30.24,ENE,65,0.0,0.0,54,0.00,CLR,,0.00,WeatherDisplay:10.37,2013-04-04 06:06:00,
2013-04-04 02:08:00,44.4,28.8,30.25,ENE,65,0.0,0.0,54,0.00,CLR,,0.00,WeatherDisplay:10.37,2013-04-04 06:08:00,
2013-04-04 02:11:00,44.8,27.8,30.25,NW,311,2.3,2.3,51,0.00,FEW,,0.00,WeatherDisplay:10.37,2013-04-04 06:11:00,
2013-04-04 02:13:00,45.1,27.1,30.25,NW,310,2.3,0.0,49,0.00,FEW,,0.00,WeatherDisplay:10.37,2013-04-04 06:13:00,
2013-04-04 02:14:00,45.3,27.2,30.25,NW,311,0.0,0.0,49,0.00,FEW,,0.00,WeatherDisplay:10.37,2013-04-04 06:14:00,
2013-04-04 02:17:00,45.6,27.0,30.25,North,352,2.3,2.3,48,0.00,FEW,,0.00,WeatherDisplay:10.37,2013-04-04 06:17:00,
2013-04-04 02:18:00,45.8,29.2,30.25,NE,37,3.5,3.5,52,0.00,FEW,,0.00,WeatherDisplay:10.37,2013-04-04 06:18:00,
2013-04-04 02:21:00,45.9,28.3,30.25,ENE,65,3.5,3.5,50,0.00,FEW,,0.00,WeatherDisplay:10.37,2013-04-04 06:21:00,
2013-04-04 02:22:00,45.9,27.3,30.25,ENE,67,2.3,2.3,48,0.00,FEW,,0.00,WeatherDisplay:10.37,2013-04-04 06:22:00,
2013-04-04 02:23:00,45.9,27.8,30.25,ENE,63,2.3,2.3,49,0.00,FEW,,0.00,WeatherDisplay:10.37,2013-04-04 06:23:00,
2013-04-04 02:24:00,46.0,26.9,30.25,ENE,71,5.8,5.8,47,0.00,FEW,,0.00,WeatherDisplay:10.37,2013-04-04 06:24:00,
2013-04-04 02:27:00,46.1,27.5,30.25,ENE,71,2.3,2.3,48,0.00,FEW,,0.00,WeatherDisplay:10.37,2013-04-04 06:27:00,
2013-04-04 02:28:00,46.1,27.5,30.25,ENE,71,3.5,3.5,48,0.00,FEW,,0.00,WeatherDisplay:10.37,2013-04-04 06:28:00,
2013-04-04 02:30:00,46.2,27.6,30.25,ENE,71,2.3,2.3,48,0.00,FEW,,0.00,WeatherDisplay:10.37,2013-04-04 06:30:00,
2013-04-04 02:32:00,46.2,26.5,30.24,ENE,71,3.5,3.5,46,0.00,FEW,,0.00,WeatherDisplay:10.37,2013-04-04 06:32:00,
2013-04-04 02:34:00,46.3,27.2,30.24,ENE,71,2.3,2.3,47,0.00,FEW,,0.00,WeatherDisplay:10.37,2013-04-04 06:34:00,
2013-04-04 02:35:00,46.4,26.7,30.24,ENE,72,3.5,3.5,46,0.00,FEW,,0.00,WeatherDisplay:10.37,2013-04-04 06:35:00,
2013-04-04 02:37:00,46.5,26.8,30.24,ENE,72,2.3,2.3,46,0.00,FEW,,0.00,WeatherDisplay:10.37,2013-04-04 06:37:00,
2013-04-04 02:38:00,46.5,26.8,30.24,ENE,72,2.3,2.3,46,0.00,FEW,,0.00,WeatherDisplay:10.37,2013-04-04 06:38:00,
2013-04-04 02:39:00,46.5,27.3,30.24,ENE,72,2.3,2.3,47,0.00,FEW,,0.00,WeatherDisplay:10.37,2013-04-04 06:39:00,
2013-04-04 02:40:00,46.4,26.2,30.24,ENE,72,3.5,3.5,45,0.00,FEW,,0.00,WeatherDisplay:10.37,2013-04-04 06:40:00,
2013-04-04 02:43:00,46.4,27.2,30.24,ENE,70,2.3,2.3,47,0.00,FEW,,0.00,WeatherDisplay:10.37,2013-04-04 06:43:00,
2013-04-04 02:44:00,46.4,27.2,30.23,ENE,69,3.5,3.5,47,0.00,FEW,,0.00,WeatherDisplay:10.37,2013-04-04 06:44:00,
2013-04-04 02:45:00,46.4,26.2,30.23,ENE,70,2.3,2.3,45,0.00,FEW,,0.00,WeatherDisplay:10.37,2013-04-04 06:45:00,
2013-04-04 02:48:00,46.5,26.3,30.23,ENE,78,3.5,3.5,45,0.00,FEW,,0.00,WeatherDisplay:10.37,2013-04-04 06:48:00,
2013-04-04 02:50:00,46.5,26.8,30.23,ENE,74,3.5,3.5,46,0.00,FEW,,0.00,WeatherDisplay:10.37,2013-04-04 06:50:00,
2013-04-04 02:53:00,46.7,26.5,30.23,ENE,78,3.5,3.5,45,0.00,FEW,,0.00,WeatherDisplay:10.37,2013-04-04 06:53:00,
2013-04-04 02:54:00,46.7,25.9,30.23,ENE,78,3.5,3.5,44,0.00,FEW,,0.00,WeatherDisplay:10.37,2013-04-04 06:54:00,
2013-04-04 02:55:00,46.7,25.4,30.23,ENE,78,3.5,3.5,43,0.00,FEW,,0.00,WeatherDisplay:10.37,2013-04-04 06:55:00,
2013-04-04 02:59:00,46.7,25.9,30.23,ENE,71,2.3,0.0,44,0.00,FEW,,0.00,WeatherDisplay:10.37,2013-04-04 06:59:00,
2013-04-04 03:00:00,46.7,24.8,30.24,ENE,68,3.5,3.5,42,0.00,FEW,,0.00,WeatherDisplay:10.37,2013-04-04 07:00:00,
2013-04-04 03:01:00,46.7,24.8,30.24,ENE,68,3.5,3.5,42,0.00,FEW,,0.00,WeatherDisplay:10.37,2013-04-04 07:01:00,
2013-04-04 03:05:00,46.9,24.4,30.24,NE,53,3.5,3.5,41,0.00,FEW,,0.00,WeatherDisplay:10.37,2013-04-04 07:05:00,
2013-04-04 03:06:00,46.9,25.0,30.24,ENE,71,5.8,5.8,42,0.00,FEW,,0.00,WeatherDisplay:10.37,2013-04-04 07:06:00,
2013-04-04 03:10:00,47.0,25.1,30.23,ENE,75,3.5,3.5,42,0.00,FEW,,0.00,WeatherDisplay:10.37,2013-04-04 07:10:00,
2013-04-04 03:11:00,46.9,25.0,30.23,ENE,71,3.5,3.5,42,0.00,FEW,,0.00,WeatherDisplay:10.37,2013-04-04 07:11:00,
2013-04-04 03:12:00,46.9,24.4,30.23,ENE,70,5.8,5.8,41,0.00,FEW,,0.00,WeatherDisplay:10.37,2013-04-04 07:12:00,
2013-04-04 03:16:00,47.0,24.5,30.23,ESE,110,3.5,3.5,41,0.00,FEW,,0.00,WeatherDisplay:10.37,2013-04-04 07:16:00,
2013-04-04 03:17:00,46.9,26.1,30.23,ESE,109,5.8,5.8,44,0.00,FEW,,0.00,WeatherDisplay:10.37,2013-04-04 07:17:00,
2013-04-04 03:21:00,46.9,24.4,30.23,East,82,3.5,3.5,41,0.00,FEW,,0.00,WeatherDisplay:10.37,2013-04-04 07:21:00,
2013-04-04 03:22:00,46.9,25.0,30.23,ENE,74,3.5,3.5,42,0.00,FEW,,0.00,WeatherDisplay:10.37,2013-04-04 07:22:00,
2013-04-04 03:26:00,46.9,24.4,30.23,ENE,71,2.3,2.3,41,0.00,FEW,,0.00,WeatherDisplay:10.37,2013-04-04 07:26:00,
2013-04-04 03:27:00,46.9,24.4,30.23,ENE,70,2.3,2.3,41,0.00,FEW,,0.00,WeatherDisplay:10.37,2013-04-04 07:27:00,
2013-04-04 03:32:00,46.9,24.4,30.24,NNE,15,2.3,0.0,41,0.00,FEW,,0.00,WeatherDisplay:10.37,2013-04-04 07:32:00,
2013-04-04 03:33:00,46.9,23.8,30.24,ENE,58,2.3,2.3,40,0.00,FEW,,0.00,WeatherDisplay:10.37,2013-04-04 07:33:00,
2013-04-04 03:37:00,46.9,23.8,30.24,ESE,106,3.5,3.5,40,0.00,FEW,,0.00,WeatherDisplay:10.37,2013-04-04 07:37:00,
2013-04-04 03:38:00,46.9,22.6,30.24,ENE,58,5.3,5.3,38,0.00,FEW,,0.00,WeatherDisplay:10.37,2013-04-04 07:38:00,
2013-04-04 03:42:00,46.8,23.7,30.24,ENE,58,3.5,3.5,40,0.00,FEW,,0.00,WeatherDisplay:10.37,2013-04-04 07:42:00,
2013-04-04 03:43:00,46.8,24.9,30.24,ENE,58,2.3,2.3,42,0.00,FEW,,0.00,WeatherDisplay:10.37,2013-04-04 07:43:00,
2013-04-04 03:47:00,46.7,23.6,30.24,ENE,58,0.0,0.0,40,0.00,FEW,,0.00,WeatherDisplay:10.37,2013-04-04 07:47:00,
2013-04-04 03:49:00,46.7,23.0,30.24,ENE,58,0.0,0.0,39,0.00,FEW,,0.00,WeatherDisplay:10.37,2013-04-04 07:49:00,
2013-04-04 03:52:00,46.7,23.0,30.25,ENE,58,0.0,0.0,39,0.00,FEW,,0.00,WeatherDisplay:10.37,2013-04-04 07:52:00,
2013-04-04 03:53:00,46.6,23.5,30.24,ENE,58,1.8,1.8,40,0.00,FEW,,0.00,WeatherDisplay:10.37,2013-04-04 07:53:00,
2013-04-04 03:55:00,46.6,22.3,30.24,ENE,58,2.3,2.3,38,0.00,FEW,,0.00,WeatherDisplay:10.37,2013-04-04 07:55:00,
2013-04-04 03:57:00,46.5,22.8,30.24,ENE,69,3.5,3.5,39,0.00,FEW,,0.00,WeatherDisplay:10.37,2013-04-04 07:57:00,
2013-04-04 03:59:00,46.5,23.4,30.24,ENE,70,2.3,2.3,40,0.00,FEW,,0.00,WeatherDisplay:10.37,2013-04-04 07:59:00,
2013-04-04 04:00:00,46.5,22.2,30.24,ENE,69,2.3,2.3,38,0.00,OVC,,0.00,WeatherDisplay:10.37,2013-04-04 08:00:00,
2013-04-04 04:02:00,46.5,21.6,30.24,ENE,70,2.3,2.3,37,0.00,OVC,,0.00,WeatherDisplay:10.37,2013-04-04 08:02:00,
2013-04-04 04:04:00,46.4,22.8,30.24,ENE,70,2.3,2.3,39,0.00,OVC,,0.00,WeatherDisplay:10.37,2013-04-04 08:04:00,
2013-04-04 04:06:00,46.4,23.4,30.24,ENE,69,3.5,3.5,40,0.00,OVC,,0.00,WeatherDisplay:10.37,2013-04-04 08:06:00,
2013-04-04 04:07:00,46.4,24.5,30.24,NE,55,3.5,3.5,42,0.00,OVC,,0.00,WeatherDisplay:10.37,2013-04-04 08:07:00,
2013-04-04 04:10:00,46.3,22.0,30.23,NE,42,3.5,3.5,38,0.00,OVC,,0.00,WeatherDisplay:10.37,2013-04-04 08:10:00,
2013-04-04 04:11:00,46.3,21.4,30.23,NE,53,5.3,5.3,37,0.00,OVC,,0.00,WeatherDisplay:10.37,2013-04-04 08:11:00,
2013-04-04 04:12:00,46.4,20.9,30.23,East,101,5.8,5.8,36,0.00,OVC,,0.00,WeatherDisplay:10.37,2013-04-04 08:12:00,
2013-04-04 04:13:00,46.4,21.5,30.23,NE,49,9.2,9.2,37,0.00,OVC,,0.00,WeatherDisplay:10.37,2013-04-04 08:13:00,
2013-04-04 04:15:00,46.6,21.0,30.23,ENE,57,3.5,3.5,36,0.00,OVC,,0.00,WeatherDisplay:10.37,2013-04-04 08:15:00,
2013-04-04 04:16:00,46.6,21.0,30.23,NE,56,3.5,3.5,36,0.00,OVC,,0.00,WeatherDisplay:10.37,2013-04-04 08:16:00,
2013-04-04 04:17:00,46.6,22.9,30.23,ENE,57,2.3,2.3,39,0.00,OVC,,0.00,WeatherDisplay:10.37,2013-04-04 08:17:00,
2013-04-04 04:19:00,46.5,19.6,30.23,NE,49,3.5,3.5,34,0.00,OVC,,0.00,WeatherDisplay:10.37,2013-04-04 08:19:00,
2013-04-04 04:21:00,46.6,21.0,30.23,ENE,75,3.5,3.5,36,0.00,OVC,,0.00,WeatherDisplay:10.37,2013-04-04 08:21:00,
2013-04-04 04:22:00,46.6,21.0,30.23,ENE,70,3.5,3.5,36,0.00,OVC,,0.00,WeatherDisplay:10.37,2013-04-04 08:22:00,
2013-04-04 04:24:00,46.6,20.4,30.23,ENE,77,5.8,5.8,35,0.00,OVC,,0.00,WeatherDisplay:10.37,2013-04-04 08:24:00,
2013-04-04 04:26:00,46.7,19.1,30.23,ENE,64,6.9,6.9,33,0.00,OVC,,0.00,WeatherDisplay:10.37,2013-04-04 08:26:00,
2013-04-04 04:27:00,46.7,19.1,30.23,ENE,64,5.8,5.8,33,0.00,OVC,,0.00,WeatherDisplay:10.37,2013-04-04 08:27:00,
2013-04-04 04:31:00,46.7,19.8,30.23,ESE,119,5.8,5.8,34,0.00,OVC,,0.00,WeatherDisplay:10.37,2013-04-04 08:31:00,
2013-04-04 04:32:00,46.7,18.4,30.23,NE,42,6.9,6.9,32,0.00,OVC,,0.00,WeatherDisplay:10.37,2013-04-04 08:32:00,
2013-04-04 04:36:00,46.8,19.9,30.23,North,353,3.5,3.5,34,0.00,OVC,,0.00,WeatherDisplay:10.37,2013-04-04 08:36:00,
2013-04-04 04:37:00,46.8,18.5,30.23,NNE,32,3.5,3.5,32,0.00,OVC,,0.00,WeatherDisplay:10.37,2013-04-04 08:37:00,
2013-04-04 04:42:00,46.9,17.8,30.23,East,85,5.8,5.8,31,0.00,OVC,,0.00,WeatherDisplay:10.37,2013-04-04 08:42:00,
2013-04-04 04:43:00,46.9,18.5,30.23,ENE,75,3.5,3.5,32,0.00,OVC,,0.00,WeatherDisplay:10.37,2013-04-04 08:43:00,
2013-04-04 04:47:00,46.9,20.0,30.23,East,82,6.9,6.9,34,0.00,OVC,,0.00,WeatherDisplay:10.37,2013-04-04 08:47:00,
2013-04-04 04:48:00,46.9,17.8,30.23,NE,53,3.5,3.5,31,0.00,OVC,,0.00,WeatherDisplay:10.37,2013-04-04 08:48:00,
2013-04-04 04:52:00,46.8,17.7,30.23,NE,55,5.8,5.8,31,0.00,OVC,,0.00,WeatherDisplay:10.37,2013-04-04 08:52:00,
2013-04-04 04:53:00,46.8,17.7,30.23,NE,42,10.4,10.4,31,0.00,OVC,,0.00,WeatherDisplay:10.37,2013-04-04 08:53:00,
2013-04-04 04:57:00,46.9,17.0,30.23,East,84,3.5,3.5,30,0.00,OVC,,0.00,WeatherDisplay:10.37,2013-04-04 08:57:00,
2013-04-04 04:58:00,46.9,17.0,30.23,East,82,3.5,3.5,30,0.00,OVC,,0.00,WeatherDisplay:10.37,2013-04-04 08:58:00,
2013-04-04 05:02:00,46.8,18.5,30.23,ENE,66,3.5,3.5,32,0.00,OVC,,0.00,WeatherDisplay:10.37,2013-04-04 09:02:00,
2013-04-04 05:03:00,46.8,18.5,30.23,East,84,3.5,3.5,32,0.00,OVC,,0.00,WeatherDisplay:10.37,2013-04-04 09:03:00,
2013-04-04 05:05:00,46.7,16.9,30.24,East,89,3.5,3.5,30,0.00,OVC,,0.00,WeatherDisplay:10.37,2013-04-04 09:05:00,
2013-04-04 05:08:00,46.7,19.1,30.24,NE,37,6.9,6.9,33,0.00,OVC,,0.00,WeatherDisplay:10.37,2013-04-04 09:08:00,
2013-04-04 05:09:00,46.7,16.9,30.24,ESE,117,6.9,6.9,30,0.00,OVC,,0.00,WeatherDisplay:10.37,2013-04-04 09:09:00,
2013-04-04 05:10:00,46.7,18.4,30.24,NE,56,6.9,6.9,32,0.00,OVC,,0.00,WeatherDisplay:10.37,2013-04-04 09:10:00,
2013-04-04 05:11:00,46.7,19.1,30.24,ENE,70,3.5,3.5,33,0.00,OVC,,0.00,WeatherDisplay:10.37,2013-04-04 09:11:00,
2013-04-04 05:13:00,46.7,16.9,30.24,East,94,5.8,5.8,30,0.00,OVC,,0.00,WeatherDisplay:10.37,2013-04-04 09:13:00,
2013-04-04 05:14:00,46.7,17.6,30.24,ENE,67,5.8,5.8,31,0.00,OVC,,0.00,WeatherDisplay:10.37,2013-04-04 09:14:00,
2013-04-04 05:15:00,46.6,16.8,30.24,ENE,66,2.3,2.3,30,0.00,OVC,,0.00,WeatherDisplay:10.37,2013-04-04 09:15:00,
2013-04-04 05:17:00,46.6,16.8,30.24,ENE,70,2.3,2.3,30,0.00,OVC,,0.00,WeatherDisplay:10.37,2013-04-04 09:17:00,
2013-04-04 05:19:00,46.6,19.0,30.24,NNW,340,3.5,3.5,33,0.00,OVC,,0.00,WeatherDisplay:10.37,2013-04-04 09:19:00,
2013-04-04 05:20:00,46.6,16.8,30.24,East,98,5.8,5.8,30,0.00,OVC,,0.00,WeatherDisplay:10.37,2013-04-04 09:20:00,
2013-04-04 05:22:00,46.6,16.8,30.24,ENE,69,6.9,6.9,30,0.00,OVC,,0.00,WeatherDisplay:10.37,2013-04-04 09:22:00,
2013-04-04 05:24:00,46.6,19.0,30.24,ENE,72,6.9,6.9,33,0.00,OVC,,0.00,WeatherDisplay:10.37,2013-04-04 09:24:00,
2013-04-04 05:25:00,46.6,16.0,30.24,NE,51,5.8,5.8,29,0.00,OVC,,0.00,WeatherDisplay:10.37,2013-04-04 09:25:00,
2013-04-04 05:26:00,46.6,17.5,30.24,NE,52,3.5,3.5,31,0.00,OVC,,0.00,WeatherDisplay:10.37,2013-04-04 09:26:00,
2013-04-04 05:27:00,46.6,16.8,30.24,ENE,60,3.5,3.5,30,0.00,OVC,,0.00,WeatherDisplay:10.37,2013-04-04 09:27:00,
2013-04-04 05:29:00,46.6,19.7,30.24,ENE,62,2.3,2.3,34,0.00,OVC,,0.00,WeatherDisplay:10.37,2013-04-04 09:29:00,
2013-04-04 05:30:00,46.5,19.6,30.24,ENE,62,2.3,2.3,34,0.00,OVC,,0.00,WeatherDisplay:10.37,2013-04-04 09:30:00,
2013-04-04 05:31:00,46.5,18.9,30.24,ENE,73,3.5,3.5,33,0.00,OVC,,0.00,WeatherDisplay:10.37,2013-04-04 09:31:00,
2013-04-04 05:32:00,46.4,17.4,30.24,ENE,69,3.5,3.5,31,0.00,OVC,,0.00,WeatherDisplay:10.37,2013-04-04 09:32:00,
2013-04-04 05:34:00,46.4,20.2,30.24,ESE,112,5.8,5.8,35,0.00,OVC,,0.00,WeatherDisplay:10.37,2013-04-04 09:34:00,
2013-04-04 05:35:00,46.4,17.4,30.24,NE,55,5.8,5.8,31,0.00,OVC,,0.00,WeatherDisplay:10.37,2013-04-04 09:35:00,
2013-04-04 05:36:00,46.4,20.2,30.24,NE,56,5.8,5.8,35,0.00,OVC,,0.00,WeatherDisplay:10.37,2013-04-04 09:36:00,
2013-04-04 05:38:00,46.3,18.7,30.24,NE,55,0.0,0.0,33,0.00,OVC,,0.00,WeatherDisplay:10.37,2013-04-04 09:38:00,
2013-04-04 05:39:00,46.2,19.3,30.24,NE,55,2.3,2.3,34,0.00,OVC,,0.00,WeatherDisplay:10.37,2013-04-04 09:39:00,
2013-04-04 05:40:00,46.2,17.9,30.24,North,359,2.3,2.3,32,0.00,OVC,,0.00,WeatherDisplay:10.37,2013-04-04 09:40:00,
2013-04-04 05:41:00,46.2,17.9,30.25,ENE,58,3.5,3.5,32,0.00,OVC,,0.00,WeatherDisplay:10.37,2013-04-04 09:41:00,
2013-04-04 05:43:00,46.1,17.8,30.25,NE,39,3.5,3.5,32,0.00,OVC,,0.00,WeatherDisplay:10.37,2013-04-04 09:43:00,
2013-04-04 05:44:00,46.1,19.2,30.25,ENE,70,3.5,3.5,34,0.00,OVC,,0.00,WeatherDisplay:10.37,2013-04-04 09:44:00,
2013-04-04 05:45:00,46.1,19.2,30.25,ENE,75,2.3,2.3,34,0.00,OVC,,0.00,WeatherDisplay:10.37,2013-04-04 09:45:00,
2013-04-04 05:47:00,46.1,18.6,30.24,East,82,5.8,5.8,33,0.00,OVC,,0.00,WeatherDisplay:10.37,2013-04-04 09:47:00,
2013-04-04 05:48:00,46.0,19.2,30.24,NE,41,3.5,3.5,34,0.00,OVC,,0.00,WeatherDisplay:10.37,2013-04-04 09:48:00,
2013-04-04 05:50:00,46.0,17.7,30.24,NE,49,5.8,5.8,32,0.00,OVC,,0.00,WeatherDisplay:10.37,2013-04-04 09:50:00,
2013-04-04 05:52:00,45.9,20.4,30.25,ENE,61,3.5,3.5,36,0.00,OVC,,0.00,WeatherDisplay:10.37,2013-04-04 09:52:00,
2013-04-04 05:55:00,45.9,19.1,30.24,ENE,63,3.5,3.5,34,0.00,OVC,,0.00,WeatherDisplay:10.37,2013-04-04 09:55:00,
2013-04-04 05:57:00,45.8,18.3,30.24,ENE,63,5.8,5.8,33,0.00,OVC,,0.00,WeatherDisplay:10.37,2013-04-04 09:57:00,
2013-04-04 06:00:00,45.7,18.9,30.24,ENE,74,6.9,6.9,34,0.00,OVC,,0.00,WeatherDisplay:10.37,2013-04-04 10:00:00,
2013-04-04 06:02:00,45.7,20.2,30.24,ENE,60,5.8,5.8,36,0.00,OVC,,0.00,WeatherDisplay:10.37,2013-04-04 10:02:00,
2013-04-04 06:06:00,45.6,18.1,30.24,ESE,104,5.8,5.8,33,0.00,OVC,,0.00,WeatherDisplay:10.37,2013-04-04 10:06:00,
2013-04-04 06:07:00,45.6,18.8,30.24,ESE,105,3.5,0.0,34,0.00,OVC,,0.00,WeatherDisplay:10.37,2013-04-04 10:07:00,
2013-04-04 06:08:00,45.6,18.8,30.24,ESE,104,3.5,0.0,34,0.00,OVC,,0.00,WeatherDisplay:10.37,2013-04-04 10:08:00,
2013-04-04 06:11:00,45.6,19.5,30.25,NE,44,2.3,2.3,35,0.00,OVC,,0.00,WeatherDisplay:10.37,2013-04-04 10:11:00,
2013-04-04 06:13:00,45.5,18.0,30.25,NE,43,3.5,3.5,33,0.00,OVC,,0.00,WeatherDisplay:10.37,2013-04-04 10:13:00,
2013-04-04 06:16:00,45.4,17.2,30.25,ENE,73,10.4,10.4,32,0.00,OVC,,0.00,WeatherDisplay:10.37,2013-04-04 10:16:00,
2013-04-04 06:18:00,45.4,17.2,30.25,NE,55,6.9,6.9,32,0.00,OVC,,0.00,WeatherDisplay:10.37,2013-04-04 10:18:00,
2013-04-04 06:22:00,45.4,17.2,30.25,North,5,6.9,6.9,32,0.00,OVC,,0.00,WeatherDisplay:10.37,2013-04-04 10:22:00,
2013-04-04 06:23:00,45.4,17.9,30.25,ENE,72,5.8,5.8,33,0.00,OVC,,0.00,WeatherDisplay:10.37,2013-04-04 10:23:00,
2013-04-04 06:24:00,45.3,19.2,30.25,ENE,64,5.8,5.8,35,0.00,OVC,,0.00,WeatherDisplay:10.37,2013-04-04 10:24:00,
2013-04-04 06:28:00,45.3,17.8,30.25,ENE,67,5.8,5.8,33,0.00,OVC,,0.00,WeatherDisplay:10.37,2013-04-04 10:28:00,
2013-04-04 06:29:00,45.3,17.8,30.25,ENE,59,3.0,13.0,33,0.00,OVC,,0.00,WeatherDisplay:10.37,2013-04-04 10:29:00,
2013-04-04 06:30:00,45.3,17.8,30.25,NE,51,6.9,6.9,33,0.00,OVC,,0.00,WeatherDisplay:10.37,2013-04-04 10:30:00,
2013-04-04 06:33:00,45.2,19.1,30.26,NE,51,2.3,2.3,35,0.00,OVC,,0.00,WeatherDisplay:10.37,2013-04-04 10:33:00,
2013-04-04 06:34:00,45.2,19.1,30.26,NE,51,2.3,2.3,35,0.00,OVC,,0.00,WeatherDisplay:10.37,2013-04-04 10:34:00,
2013-04-04 06:35:00,45.1,19.7,30.26,ENE,69,5.3,5.3,36,0.00,OVC,,0.00,WeatherDisplay:10.37,2013-04-04 10:35:00,
2013-04-04 06:38:00,45.1,17.7,30.26,NNE,28,3.5,3.5,33,0.00,OVC,,0.00,WeatherDisplay:10.37,2013-04-04 10:38:00,
2013-04-04 06:39:00,45.1,19.7,30.25,East,97,7.0,7.0,36,0.00,OVC,,0.00,WeatherDisplay:10.37,2013-04-04 10:39:00,
2013-04-04 06:40:00,45.1,19.7,30.26,ENE,60,6.9,6.9,36,0.00,OVC,,0.00,WeatherDisplay:10.37,2013-04-04 10:40:00,
2013-04-04 06:41:00,45.0,18.3,30.26,ENE,58,5.8,5.8,34,0.00,OVC,,0.00,WeatherDisplay:10.37,2013-04-04 10:41:00,
2013-04-04 06:43:00,45.0,18.3,30.26,ENE,58,6.9,6.9,34,0.00,OVC,,0.00,WeatherDisplay:10.37,2013-04-04 10:43:00,
2013-04-04 06:45:00,45.0,17.6,30.26,NW,325,10.5,10.5,33,0.00,OVC,,0.00,WeatherDisplay:10.37,2013-04-04 10:45:00,
2013-04-04 06:46:00,45.0,17.6,30.26,NNW,346,16.1,16.1,33,0.00,OVC,,0.00,WeatherDisplay:10.37,2013-04-04 10:46:00,
2013-04-04 06:47:00,45.0,17.6,30.26,East,98,6.9,6.9,33,0.00,OVC,,0.00,WeatherDisplay:10.37,2013-04-04 10:47:00,
2013-04-04 06:49:00,45.0,17.6,30.26,ENE,60,5.8,5.8,33,0.00,OVC,,0.00,WeatherDisplay:10.37,2013-04-04 10:49:00,
2013-04-04 06:50:00,44.9,17.5,30.26,East,86,5.8,5.8,33,0.00,OVC,,0.00,WeatherDisplay:10.37,2013-04-04 10:50:00,
2013-04-04 06:52:00,44.9,17.5,30.26,NE,53,6.9,6.9,33,0.00,OVC,,0.00,WeatherDisplay:10.37,2013-04-04 10:52:00,
2013-04-04 06:54:00,44.9,18.9,30.26,NE,53,5.8,5.8,35,0.00,OVC,,0.00,WeatherDisplay:10.37,2013-04-04 10:54:00,
2013-04-04 06:55:00,44.8,19.4,30.26,ENE,58,5.8,5.8,36,0.00,OVC,,0.00,WeatherDisplay:10.37,2013-04-04 10:55:00,
2013-04-04 06:57:00,44.7,18.7,30.26,ENE,72,6.9,6.9,35,0.00,OVC,,0.00,WeatherDisplay:10.37,2013-04-04 10:57:00,
2013-04-04 06:58:00,44.7,19.3,30.26,ENE,72,2.3,2.3,36,0.00,OVC,,0.00,WeatherDisplay:10.37,2013-04-04 10:58:00,
2013-04-04 06:59:00,44.6,21.7,30.26,ENE,71,3.5,3.5,40,0.00,OVC,,0.00,WeatherDisplay:10.37,2013-04-04 10:59:00,
2013-04-04 07:00:00,44.6,20.5,30.26,NE,43,3.5,3.5,38,0.00,OVC,,0.00,WeatherDisplay:10.37,2013-04-04 11:00:00,
2013-04-04 07:02:00,44.5,20.4,30.26,NE,55,6.9,6.9,38,0.00,OVC,,0.00,WeatherDisplay:10.37,2013-04-04 11:02:00,
2013-04-04 07:03:00,44.5,20.4,30.26,ESE,113,3.5,3.5,38,0.00,OVC,,0.00,WeatherDisplay:10.37,2013-04-04 11:03:00,
2013-04-04 07:04:00,44.4,21.0,30.26,NE,38,7.0,7.0,39,0.00,OVC,,0.00,WeatherDisplay:10.37,2013-04-04 11:04:00,
2013-04-04 07:05:00,44.4,19.1,30.26,NE,37,6.9,6.9,36,0.00,OVC,,0.00,WeatherDisplay:10.37,2013-04-04 11:05:00,
2013-04-04 07:07:00,44.3,19.6,30.26,NE,47,6.9,6.9,37,0.00,OVC,,0.00,WeatherDisplay:10.37,2013-04-04 11:07:00,
2013-04-04 07:08:00,44.3,19.6,30.26,NE,47,3.5,3.5,37,0.00,OVC,,0.00,WeatherDisplay:10.37,2013-04-04 11:08:00,
2013-04-04 07:10:00,44.3,19.0,30.26,East,85,5.8,5.8,36,0.00,OVC,,0.00,WeatherDisplay:10.37,2013-04-04 11:10:00,
2013-04-04 07:13:00,44.3,19.0,30.27,NW,325,6.9,6.9,36,0.00,OVC,,0.00,WeatherDisplay:10.37,2013-04-04 11:13:00,
2013-04-04 07:14:00,44.3,19.0,30.27,ENE,71,5.8,5.8,36,0.00,OVC,,0.00,WeatherDisplay:10.37,2013-04-04 11:14:00,
2013-04-04 07:15:00,44.3,19.0,30.26,ENE,67,3.5,3.5,36,0.00,OVC,,0.00,WeatherDisplay:10.37,2013-04-04 11:15:00,
2013-04-04 07:16:00,44.3,19.6,30.26,ENE,60,7.0,7.0,37,0.00,OVC,,0.00,WeatherDisplay:10.37,2013-04-04 11:16:00,
2013-04-04 07:18:00,44.2,20.2,30.26,ENE,58,5.8,5.8,38,0.00,OVC,,0.00,WeatherDisplay:10.37,2013-04-04 11:18:00,
2013-04-04 07:19:00,44.2,18.9,30.26,NNE,16,5.8,5.8,36,0.00,OVC,,0.00,WeatherDisplay:10.37,2013-04-04 11:19:00,
2013-04-04 07:21:00,44.2,19.5,30.26,NNW,335,3.5,3.5,37,0.00,OVC,,0.00,WeatherDisplay:10.37,2013-04-04 11:21:00,
2013-04-04 07:23:00,44.2,19.5,30.26,NNW,333,5.8,5.8,37,0.00,OVC,,0.00,WeatherDisplay:10.37,2013-04-04 11:23:00,
2013-04-04 07:24:00,44.2,18.9,30.26,ENE,58,5.3,5.3,36,0.00,OVC,,0.00,WeatherDisplay:10.37,2013-04-04 11:24:00,
2013-04-04 07:26:00,44.1,18.8,30.26,NE,38,5.8,5.8,36,0.00,OVC,,0.00,WeatherDisplay:10.37,2013-04-04 11:26:00,
2013-04-04 07:29:00,44.1,19.5,30.26,NE,42,3.5,3.5,37,0.00,OVC,,0.00,WeatherDisplay:10.37,2013-04-04 11:29:00,
2013-04-04 07:31:00,44.1,19.5,30.26,ESE,113,7.0,7.0,37,0.00,OVC,,0.00,WeatherDisplay:10.37,2013-04-04 11:31:00,
2013-04-04 07:32:00,44.1,19.5,30.26,East,79,8.7,8.7,37,0.00,OVC,,0.00,WeatherDisplay:10.37,2013-04-04 11:32:00,
2013-04-04 07:34:00,44.1,18.8,30.27,NE,40,6.9,6.9,36,0.00,OVC,,0.00,WeatherDisplay:10.37,2013-04-04 11:34:00,
2013-04-04 07:37:00,44.1,18.8,30.27,East,88,9.2,9.2,36,0.00,OVC,,0.00,WeatherDisplay:10.37,2013-04-04 11:37:00,
2013-04-04 07:39:00,44.0,18.7,30.27,ENE,60,9.2,9.2,36,0.00,OVC,,0.00,WeatherDisplay:10.37,2013-04-04 11:39:00,
2013-04-04 07:40:00,44.1,19.5,30.27,North,351,9.2,9.2,37,0.00,OVC,,0.00,WeatherDisplay:10.37,2013-04-04 11:40:00,
2013-04-04 07:42:00,44.1,19.5,30.27,NNW,334,6.9,6.9,37,0.00,OVC,,0.00,WeatherDisplay:10.37,2013-04-04 11:42:00,
2013-04-04 07:44:00,44.0,20.0,30.27,NE,53,6.9,6.9,38,0.00,OVC,,0.00,WeatherDisplay:10.37,2013-04-04 11:44:00,
2013-04-04 07:45:00,44.0,20.0,30.27,NNW,345,6.9,6.9,38,0.00,OVC,,0.00,WeatherDisplay:10.37,2013-04-04 11:45:00,
2013-04-04 07:47:00,44.0,20.0,30.27,ENE,61,5.8,5.8,38,0.00,OVC,,0.00,WeatherDisplay:10.37,2013-04-04 11:47:00,
2013-04-04 07:48:00,44.0,20.6,30.26,NW,304,3.5,3.5,39,0.00,OVC,,0.00,WeatherDisplay:10.37,2013-04-04 11:48:00,
2013-04-04 07:49:00,43.9,20.5,30.26,NE,41,5.8,5.8,39,0.00,OVC,,0.00,WeatherDisplay:10.37,2013-04-04 11:49:00,
2013-04-04 07:51:00,43.9,19.9,30.27,WNW,297,7.0,7.0,38,0.00,OVC,,0.00,WeatherDisplay:10.37,2013-04-04 11:51:00,
2013-04-04 07:52:00,43.9,19.9,30.26,NNE,29,5.8,5.8,38,0.00,OVC,,0.00,WeatherDisplay:10.37,2013-04-04 11:52:00,
2013-04-04 07:53:00,43.9,20.5,30.26,NE,51,5.8,5.8,39,0.00,OVC,,0.00,WeatherDisplay:10.37,2013-04-04 11:53:00,
2013-04-04 07:55:00,43.9,19.9,30.26,ENE,59,5.8,5.8,38,0.00,OVC,,0.00,WeatherDisplay:10.37,2013-04-04 11:55:00,
2013-04-04 07:56:00,43.9,20.5,30.26,ENE,58,5.8,5.8,39,0.00,OVC,,0.00,WeatherDisplay:10.37,2013-04-04 11:56:00,
2013-04-04 07:58:00,43.9,19.9,30.26,ENE,59,5.8,5.8,38,0.00,OVC,,0.00,WeatherDisplay:10.37,2013-04-04 11:58:00,
2013-04-04 08:00:00,43.8,20.4,30.26,NNE,25,5.8,5.8,39,0.00,OVC,,0.00,WeatherDisplay:10.37,2013-04-04 12:00:00,
2013-04-04 08:02:00,43.8,20.4,30.26,ENE,62,5.8,5.8,39,0.00,OVC,,0.00,WeatherDisplay:10.37,2013-04-04 12:02:00,
2013-04-04 08:03:00,43.8,19.8,30.26,ENE,60,8.7,8.7,38,0.00,OVC,,0.00,WeatherDisplay:10.37,2013-04-04 12:03:00,
2013-04-04 08:05:00,43.7,19.7,30.25,NE,41,7.0,7.0,38,0.00,OVC,,0.00,WeatherDisplay:10.37,2013-04-04 12:05:00,
2013-04-04 08:07:00,43.7,19.7,30.25,NNE,20,9.2,9.2,38,0.00,OVC,,0.00,WeatherDisplay:10.37,2013-04-04 12:07:00,
2013-04-04 08:08:00,43.7,19.7,30.25,North,349,9.2,9.2,38,0.00,OVC,,0.00,WeatherDisplay:10.37,2013-04-04 12:08:00,
2013-04-04 08:09:00,43.7,19.7,30.25,North,8,5.8,5.8,38,0.00,OVC,,0.00,WeatherDisplay:10.37,2013-04-04 12:09:00,
2013-04-04 08:11:00,43.7,19.7,30.25,NE,55,10.4,10.4,38,0.00,OVC,,0.00,WeatherDisplay:10.37,2013-04-04 12:11:00,
2013-04-04 08:13:00,43.7,20.3,30.26,NE,44,9.2,9.2,39,0.00,OVC,,0.00,WeatherDisplay:10.37,2013-04-04 12:13:00,
2013-04-04 08:14:00,43.6,19.6,30.25,NNE,19,6.0,14.0,38,0.00,OVC,,0.00,WeatherDisplay:10.37,2013-04-04 12:14:00,
2013-04-04 08:16:00,43.6,20.2,30.26,North,11,13.8,13.8,39,0.00,OVC,,0.00,WeatherDisplay:10.37,2013-04-04 12:16:00,
2013-04-04 08:18:00,43.6,20.2,30.26,NE,54,6.9,6.9,39,0.00,OVC,,0.00,WeatherDisplay:10.37,2013-04-04 12:18:00,
2013-04-04 08:20:00,43.5,20.2,30.26,ENE,60,12.7,12.7,39,0.00,OVC,,0.00,WeatherDisplay:10.37,2013-04-04 12:20:00,
2013-04-04 08:21:00,43.5,20.2,30.25,NNW,347,12.7,12.7,39,0.00,OVC,,0.00,WeatherDisplay:10.37,2013-04-04 12:21:00,
2013-04-04 08:23:00,43.4,20.7,30.25,ENE,58,12.7,12.7,40,0.00,OVC,,0.00,WeatherDisplay:10.37,2013-04-04 12:23:00,
2013-04-04 08:24:00,43.3,20.6,30.25,NNW,344,6.9,6.9,40,0.00,OVC,,0.00,WeatherDisplay:10.37,2013-04-04 12:24:00,
2013-04-04 08:26:00,43.3,21.1,30.25,ENE,60,5.8,5.8,41,0.00,OVC,,0.00,WeatherDisplay:10.37,2013-04-04 12:26:00,
2013-04-04 08:27:00,43.3,21.1,30.25,ESE,108,5.8,5.8,41,0.00,OVC,,0.00,WeatherDisplay:10.37,2013-04-04 12:27:00,
2013-04-04 08:28:00,43.3,20.6,30.25,NE,50,9.2,9.2,40,0.00,OVC,,0.00,WeatherDisplay:10.37,2013-04-04 12:28:00,
2013-04-04 08:29:00,43.3,20.0,30.25,North,355,6.9,6.9,39,0.00,OVC,,0.00,WeatherDisplay:10.37,2013-04-04 12:29:00,
2013-04-04 08:31:00,43.3,21.1,30.26,WNW,292,3.5,4.7,41,0.00,OVC,,0.00,WeatherDisplay:10.37,2013-04-04 12:31:00,
2013-04-04 08:32:00,43.3,20.6,30.25,WNW,298,9.2,9.2,40,0.00,OVC,,0.00,WeatherDisplay:10.37,2013-04-04 12:32:00,
2013-04-04 08:33:00,43.3,20.6,30.26,NW,314,5.8,5.8,40,0.00,OVC,,0.00,WeatherDisplay:10.37,2013-04-04 12:33:00,
2013-04-04 08:34:00,43.3,20.6,30.26,ENE,58,5.8,5.8,40,0.00,OVC,,0.00,WeatherDisplay:10.37,2013-04-04 12:34:00,
2013-04-04 08:36:00,43.3,20.6,30.25,NE,49,9.2,9.2,40,0.00,OVC,,0.00,WeatherDisplay:10.37,2013-04-04 12:36:00,
2013-04-04 08:37:00,43.3,21.1,30.25,NE,41,9.2,9.2,41,0.00,OVC,,0.00,WeatherDisplay:10.37,2013-04-04 12:37:00,
2013-04-04 08:39:00,43.2,21.1,30.25,East,79,3.5,3.5,41,0.00,OVC,,0.00,WeatherDisplay:10.37,2013-04-04 12:39:00,
2013-04-04 08:40:00,43.2,21.6,30.25,East,79,3.5,3.5,42,0.00,OVC,,0.00,WeatherDisplay:10.37,2013-04-04 12:40:00,
2013-04-04 08:44:00,43.2,20.5,30.25,WNW,287,6.9,6.9,40,0.00,OVC,,0.00,WeatherDisplay:10.37,2013-04-04 12:44:00,
2013-04-04 08:45:00,43.2,20.5,30.26,ENE,71,5.8,5.8,40,0.00,OVC,,0.00,WeatherDisplay:10.37,2013-04-04 12:45:00,
2013-04-04 08:49:00,43.1,20.4,30.25,East,96,10.4,10.4,40,0.00,OVC,,0.00,WeatherDisplay:10.37,2013-04-04 12:49:00,
2013-04-04 08:50:00,43.1,20.4,30.25,East,84,7.0,7.0,40,0.00,OVC,,0.00,WeatherDisplay:10.37,2013-04-04 12:50:00,
2013-04-04 08:54:00,43.0,20.9,30.26,NNE,15,6.9,6.9,41,0.00,OVC,,0.00,WeatherDisplay:10.37,2013-04-04 12:54:00,
2013-04-04 08:55:00,43.0,20.9,30.25,North,349,6.9,6.9,41,0.00,OVC,,0.00,WeatherDisplay:10.37,2013-04-04 12:55:00,
2013-04-04 08:57:00,43.1,21.0,30.25,North,1,7.0,7.0,41,0.00,OVC,,0.00,WeatherDisplay:10.37,2013-04-04 12:57:00,
2013-04-04 08:59:00,43.0,20.9,30.26,NE,34,6.0,11.0,41,0.00,OVC,,0.00,WeatherDisplay:10.37,2013-04-04 12:59:00,
2013-04-04 09:00:00,43.0,20.9,30.26,NE,55,9.2,9.2,41,0.00,OVC,,0.00,WeatherDisplay:10.37,2013-04-04 13:00:00,
2013-04-04 09:02:00,43.0,21.4,30.25,ENE,72,13.8,13.8,42,0.00,OVC,,0.00,WeatherDisplay:10.37,2013-04-04 13:02:00,
2013-04-04 09:05:00,43.0,21.4,30.25,NE,55,9.2,9.2,42,0.00,OVC,,0.00,WeatherDisplay:10.37,2013-04-04 13:05:00,
2013-04-04 09:07:00,43.0,20.9,30.25,ENE,71,8.7,8.7,41,0.00,OVC,,0.00,WeatherDisplay:10.37,2013-04-04 13:07:00,
2013-04-04 09:10:00,43.0,20.9,30.26,NE,37,10.4,10.4,41,0.00,OVC,,0.00,WeatherDisplay:10.37,2013-04-04 13:10:00,
2013-04-04 09:12:00,43.0,21.4,30.26,East,85,6.9,6.9,42,0.00,OVC,,0.00,WeatherDisplay:10.37,2013-04-04 13:12:00,
2013-04-04 09:15:00,43.1,22.6,30.26,ENE,65,3.5,3.5,44,0.00,OVC,,0.00,WeatherDisplay:10.37,2013-04-04 13:15:00,
2013-04-04 09:16:00,43.1,22.6,30.25,ENE,77,5.3,5.3,44,0.00,OVC,,0.00,WeatherDisplay:10.37,2013-04-04 13:16:00,
2013-04-04 09:17:00,43.1,22.1,30.25,NE,55,5.8,6.0,43,0.00,OVC,,0.00,WeatherDisplay:10.37,2013-04-04 13:17:00,
2013-04-04 09:20:00,43.1,22.1,30.25,ESE,103,5.8,5.8,43,0.00,OVC,,0.00,WeatherDisplay:10.37,2013-04-04 13:20:00,
2013-04-04 09:21:00,43.1,22.1,30.25,ESE,103,5.8,5.8,43,0.00,OVC,,0.00,WeatherDisplay:10.37,2013-04-04 13:21:00,
2013-04-04 09:22:00,43.1,22.1,30.25,ENE,63,10.5,10.5,43,0.00,OVC,,0.00,WeatherDisplay:10.37,2013-04-04 13:22:00,
2013-04-04 09:26:00,43.0,22.0,30.25,NNE,23,10.4,10.4,43,0.00,OVC,,0.00,WeatherDisplay:10.37,2013-04-04 13:26:00,
2013-04-04 09:27:00,43.0,23.1,30.25,NE,53,9.2,9.2,45,0.00,OVC,,0.00,WeatherDisplay:10.37,2013-04-04 13:27:00,
2013-04-04 09:28:00,43.0,22.5,30.25,ENE,63,6.9,6.9,44,0.00,OVC,,0.00,WeatherDisplay:10.37,2013-04-04 13:28:00,
2013-04-04 09:31:00,43.0,23.6,30.25,ENE,75,9.2,9.2,46,0.00,OVC,,0.00,WeatherDisplay:10.37,2013-04-04 13:31:00,
2013-04-04 09:32:00,43.0,23.6,30.25,NE,56,10.5,10.5,46,0.00,OVC,,0.00,WeatherDisplay:10.37,2013-04-04 13:32:00,
2013-04-04 09:33:00,42.9,24.0,30.25,ENE,75,10.4,10.4,47,0.00,OVC,,0.00,WeatherDisplay:10.37,2013-04-04 13:33:00,
2013-04-04 09:36:00,42.8,24.4,30.25,NNE,27,10.4,10.4,48,0.00,OVC,,0.00,WeatherDisplay:10.37,2013-04-04 13:36:00,
2013-04-04 09:37:00,42.7,24.8,30.25,NNE,25,6.9,6.9,49,0.00,OVC,,0.00,WeatherDisplay:10.37,2013-04-04 13:37:00,
2013-04-04 09:39:00,42.6,23.8,30.25,ENE,63,9.2,9.2,47,0.00,OVC,,0.00,WeatherDisplay:10.37,2013-04-04 13:39:00,
2013-04-04 09:41:00,42.5,24.2,30.25,ENE,69,10.4,10.4,48,0.00,OVC,,0.00,WeatherDisplay:10.37,2013-04-04 13:41:00,
2013-04-04 09:42:00,42.4,24.6,30.25,NE,47,12.7,12.7,49,0.00,OVC,,0.00,WeatherDisplay:10.37,2013-04-04 13:42:00,
2013-04-04 09:43:00,42.4,24.6,30.25,North,9,7.0,7.0,49,0.00,OVC,,0.00,WeatherDisplay:10.37,2013-04-04 13:43:00,
2013-04-04 09:44:00,42.4,25.1,30.25,ENE,66,10.4,10.4,50,0.00,OVC,,0.00,WeatherDisplay:10.37,2013-04-04 13:44:00,
2013-04-04 09:46:00,42.3,25.9,30.24,ENE,61,6.9,6.9,52,0.00,OVC,,0.00,WeatherDisplay:10.37,2013-04-04 13:46:00,
2013-04-04 09:47:00,42.3,26.8,30.24,East,95,8.7,8.7,54,0.00,OVC,,0.00,WeatherDisplay:10.37,2013-04-04 13:47:00,
2013-04-04 09:48:00,42.3,25.9,30.24,ENE,66,8.7,8.7,52,0.00,OVC,,0.00,WeatherDisplay:10.37,2013-04-04 13:48:00,
2013-04-04 09:49:00,42.3,26.4,30.24,ENE,58,9.2,9.2,53,0.00,OVC,,0.00,WeatherDisplay:10.37,2013-04-04 13:49:00,
2013-04-04 09:51:00,42.3,27.3,30.24,ENE,66,3.5,3.5,55,0.00,OVC,,0.00,WeatherDisplay:10.37,2013-04-04 13:51:00,
2013-04-04 09:52:00,42.2,27.2,30.24,ENE,75,3.5,3.5,55,0.00,OVC,,0.00,WeatherDisplay:10.37,2013-04-04 13:52:00,
2013-04-04 09:53:00,42.2,27.2,30.24,ESE,111,3.5,3.5,55,0.00,OVC,,0.00,WeatherDisplay:10.37,2013-04-04 13:53:00,
2013-04-04 09:55:00,42.2,28.5,30.24,NW,307,6.9,6.9,58,0.00,OVC,,0.00,WeatherDisplay:10.37,2013-04-04 13:55:00,
2013-04-04 09:56:00,42.3,27.7,30.24,NE,45,5.8,5.8,56,0.00,OVC,,0.00,WeatherDisplay:10.37,2013-04-04 13:56:00,
2013-04-04 09:57:00,42.3,28.1,30.25,ENE,72,3.5,3.5,57,0.00,OVC,,0.00,WeatherDisplay:10.37,2013-04-04 13:57:00,
2013-04-04 09:58:00,42.3,28.1,30.25,ENE,72,3.5,3.5,57,0.00,OVC,,0.00,WeatherDisplay:10.37,2013-04-04 13:58:00,
2013-04-04 10:00:00,42.3,28.1,30.24,NE,40,9.2,9.2,57,0.00,OVC,,0.00,WeatherDisplay:10.37,2013-04-04 14:00:00,
2013-04-04 10:01:00,42.2,28.0,30.24,NE,47,3.5,3.5,57,0.00,OVC,,0.00,WeatherDisplay:10.37,2013-04-04 14:01:00,
2013-04-04 10:03:00,42.3,28.6,30.24,NNE,29,5.8,5.8,58,0.00,OVC,,0.00,WeatherDisplay:10.37,2013-04-04 14:03:00,
2013-04-04 10:06:00,42.2,28.0,30.24,NNE,28,7.0,7.0,57,0.00,OVC,,0.00,WeatherDisplay:10.37,2013-04-04 14:06:00,
2013-04-04 10:07:00,42.2,27.2,30.24,NE,41,9.2,9.2,55,0.00,OVC,,0.00,WeatherDisplay:10.37,2013-04-04 14:07:00,
2013-04-04 10:08:00,42.2,27.6,30.24,East,94,8.7,8.7,56,0.00,OVC,,0.00,WeatherDisplay:10.37,2013-04-04 14:08:00,
2013-04-04 10:09:00,42.2,28.0,30.24,ENE,63,10.4,10.4,57,0.00,OVC,,0.00,WeatherDisplay:10.37,2013-04-04 14:09:00,
2013-04-04 10:11:00,42.2,27.2,30.24,ENE,65,12.7,12.7,55,0.00,OVC,,0.00,WeatherDisplay:10.37,2013-04-04 14:11:00,
2013-04-04 10:13:00,42.2,28.5,30.24,ENE,70,16.1,16.1,58,0.00,OVC,,0.00,WeatherDisplay:10.37,2013-04-04 14:13:00,
2013-04-04 10:14:00,42.2,28.0,30.24,ENE,61,9.2,9.2,57,0.00,OVC,,0.00,WeatherDisplay:10.37,2013-04-04 14:14:00,
2013-04-04 10:17:00,42.2,28.9,30.24,ENE,73,6.9,6.9,59,0.00,OVC,,0.00,WeatherDisplay:10.37,2013-04-04 14:17:00,
2013-04-04 10:18:00,42.3,29.8,30.24,NE,46,6.9,6.9,61,0.00,OVC,,0.00,WeatherDisplay:10.37,2013-04-04 14:18:00,
2013-04-04 10:19:00,42.4,29.1,30.24,NNW,335,10.4,10.4,59,0.00,OVC,,0.00,WeatherDisplay:10.37,2013-04-04 14:19:00,
2013-04-04 10:20:00,42.4,29.1,30.24,North,1,10.4,10.4,59,0.00,OVC,,0.00,WeatherDisplay:10.37,2013-04-04 14:20:00,
2013-04-04 10:22:00,42.4,28.7,30.23,NE,37,10.4,10.4,58,0.00,OVC,,0.00,WeatherDisplay:10.37,2013-04-04 14:22:00,
2013-04-04 10:23:00,42.4,28.7,30.23,ENE,68,6.9,6.9,58,0.00,OVC,,0.00,WeatherDisplay:10.37,2013-04-04 14:23:00,
2013-04-04 10:24:00,42.5,28.8,30.23,ENE,58,3.5,3.5,58,0.00,OVC,,0.00,WeatherDisplay:10.37,2013-04-04 14:24:00,
2013-04-04 10:26:00,42.6,29.3,30.23,NE,56,5.8,5.8,59,0.00,OVC,,0.00,WeatherDisplay:10.37,2013-04-04 14:26:00,
2013-04-04 10:27:00,42.6,29.3,30.23,ENE,73,5.8,5.8,59,0.00,OVC,,0.00,WeatherDisplay:10.37,2013-04-04 14:27:00,
2013-04-04 10:28:00,42.7,29.4,30.23,ESE,108,5.8,5.8,59,0.00,OVC,,0.00,WeatherDisplay:10.37,2013-04-04 14:28:00,
2013-04-04 10:29:00,42.8,28.6,30.23,East,97,12.7,12.7,57,0.00,OVC,,0.00,WeatherDisplay:10.37,2013-04-04 14:29:00,
2013-04-04 10:32:00,42.9,29.1,30.23,ENE,68,9.2,9.2,58,0.00,OVC,,0.00,WeatherDisplay:10.37,2013-04-04 14:32:00,
2013-04-04 10:33:00,42.9,28.7,30.23,NE,54,12.7,12.7,57,0.00,OVC,,0.00,WeatherDisplay:10.37,2013-04-04 14:33:00,
2013-04-04 10:35:00,42.9,28.7,30.24,ENE,72,12.7,12.7,57,0.00,OVC,,0.00,WeatherDisplay:10.37,2013-04-04 14:35:00,
2013-04-04 10:37:00,43.0,29.2,30.24,NE,51,10.4,10.4,58,0.00,OVC,,0.00,WeatherDisplay:10.37,2013-04-04 14:37:00,
2013-04-04 10:38:00,43.0,29.2,30.24,NE,50,9.2,9.2,58,0.00,OVC,,0.00,WeatherDisplay:10.37,2013-04-04 14:38:00,
2013-04-04 10:40:00,43.1,29.7,30.23,NE,55,9.2,9.2,59,0.00,OVC,,0.00,WeatherDisplay:10.37,2013-04-04 14:40:00,
2013-04-04 10:42:00,43.2,31.1,30.23,East,95,12.7,12.7,62,0.00,OVC,,0.00,WeatherDisplay:10.37,2013-04-04 14:42:00,
2013-04-04 10:43:00,43.2,30.6,30.23,ENE,71,9.2,9.2,61,0.00,OVC,,0.00,WeatherDisplay:10.37,2013-04-04 14:43:00,
2013-04-04 10:44:00,43.2,29.8,30.23,NE,49,9.2,9.2,59,0.00,OVC,,0.00,WeatherDisplay:10.37,2013-04-04 14:44:00,
2013-04-04 10:45:00,43.3,29.9,30.23,East,86,9.2,9.2,59,0.00,OVC,,0.00,WeatherDisplay:10.37,2013-04-04 14:45:00,
2013-04-04 10:47:00,43.3,30.3,30.23,NE,53,10.4,10.4,60,0.00,OVC,,0.00,WeatherDisplay:10.37,2013-04-04 14:47:00,
2013-04-04 10:48:00,43.3,30.3,30.23,NE,40,10.4,10.4,60,0.00,OVC,,0.00,WeatherDisplay:10.37,2013-04-04 14:48:00,
2013-04-04 10:49:00,43.5,30.5,30.23,East,100,8.7,8.7,60,0.00,OVC,,0.00,WeatherDisplay:10.37,2013-04-04 14:49:00,
2013-04-04 10:50:00,43.5,30.9,30.23,NNE,25,10.4,10.4,61,0.00,OVC,,0.00,WeatherDisplay:10.37,2013-04-04 14:50:00,
2013-04-04 10:52:00,43.7,31.1,30.23,ESE,113,9.2,9.2,61,0.00,OVC,,0.00,WeatherDisplay:10.37,2013-04-04 14:52:00,
2013-04-04 10:54:00,43.8,30.8,30.23,NNW,327,10.4,10.4,60,0.00,OVC,,0.00,WeatherDisplay:10.37,2013-04-04 14:54:00,
2013-04-04 10:55:00,43.9,30.9,30.23,East,79,12.7,12.7,60,0.00,OVC,,0.00,WeatherDisplay:10.37,2013-04-04 14:55:00,
2013-04-04 10:57:00,43.9,30.9,30.23,NNE,32,5.8,5.8,60,0.00,OVC,,0.00,WeatherDisplay:10.37,2013-04-04 14:57:00,
2013-04-04 10:59:00,44.0,31.4,30.23,ENE,70,14.0,14.0,61,0.00,OVC,,0.00,WeatherDisplay:10.37,2013-04-04 14:59:00,
2013-04-04 11:00:00,43.9,30.5,30.23,NE,51,16.1,16.1,59,0.00,OVC,,0.00,WeatherDisplay:10.37,2013-04-04 15:00:00,
2013-04-04 11:03:00,43.9,30.5,30.23,ENE,66,14.0,14.0,59,0.00,OVC,,0.00,WeatherDisplay:10.37,2013-04-04 15:03:00,
2013-04-04 11:05:00,43.7,31.1,30.22,ENE,67,12.7,12.7,61,0.00,OVC,,0.00,WeatherDisplay:10.37,2013-04-04 15:05:00,
2013-04-04 11:07:00,43.7,31.1,30.22,ENE,58,10.4,10.4,61,0.00,OVC,,0.00,WeatherDisplay:10.37,2013-04-04 15:07:00,
2013-04-04 11:08:00,43.7,31.9,30.22,NNW,342,6.9,6.9,63,0.00,OVC,,0.00,WeatherDisplay:10.37,2013-04-04 15:08:00,
2013-04-04 11:10:00,43.7,32.3,30.21,NW,314,6.9,6.9,64,0.00,OVC,,0.00,WeatherDisplay:10.37,2013-04-04 15:10:00,
2013-04-04 11:11:00,43.7,33.1,30.21,NE,34,6.9,6.9,66,0.00,OVC,,0.00,WeatherDisplay:10.37,2013-04-04 15:11:00,
2013-04-04 11:13:00,43.7,32.7,30.21,ENE,65,7.0,7.0,65,0.00,OVC,,0.00,WeatherDisplay:10.37,2013-04-04 15:13:00,
2013-04-04 11:16:00,43.5,33.3,30.22,NE,41,10.4,10.4,67,0.00,OVC,,0.00,WeatherDisplay:10.37,2013-04-04 15:16:00,
2013-04-04 11:18:00,43.3,33.1,30.21,NE,49,10.5,10.5,67,0.00,OVC,,0.00,WeatherDisplay:10.37,2013-04-04 15:18:00,
2013-04-04 11:21:00,43.2,33.7,30.21,ENE,62,12.3,12.3,69,0.00,OVC,,0.00,WeatherDisplay:10.37,2013-04-04 15:21:00,
2013-04-04 11:23:00,43.1,32.9,30.21,NE,56,16.1,16.1,67,0.00,OVC,,0.00,WeatherDisplay:10.37,2013-04-04 15:23:00,
2013-04-04 11:24:00,43.1,34.0,30.21,ENE,60,10.4,10.4,70,0.00,OVC,,0.00,WeatherDisplay:10.37,2013-04-04 15:24:00,
2013-04-04 11:26:00,43.1,33.3,30.21,WSW,245,12.7,12.7,68,0.00,OVC,,0.00,WeatherDisplay:10.37,2013-04-04 15:26:00,
2013-04-04 11:28:00,43.1,34.0,30.21,ENE,58,13.8,13.8,70,0.00,OVC,,0.00,WeatherDisplay:10.37,2013-04-04 15:28:00,
2013-04-04 11:30:00,43.1,33.3,30.21,NE,37,12.7,12.7,68,0.00,OVC,,0.00,WeatherDisplay:10.37,2013-04-04 15:30:00,
2013-04-04 11:31:00,43.1,32.9,30.21,ENE,66,17.3,17.3,67,0.00,OVC,,0.00,WeatherDisplay:10.37,2013-04-04 15:31:00,
2013-04-04 11:33:00,43.1,33.3,30.21,ENE,68,6.9,6.9,68,0.00,OVC,,0.00,WeatherDisplay:10.37,2013-04-04 15:33:00,
2013-04-04 11:35:00,43.1,32.5,30.21,East,88,13.8,13.8,66,0.00,OVC,,0.00,WeatherDisplay:10.37,2013-04-04 15:35:00,
2013-04-04 11:36:00,43.1,33.6,30.22,South,174,9.2,9.2,69,0.00,OVC,,0.00,WeatherDisplay:10.37,2013-04-04 15:36:00,
2013-04-04 11:39:00,43.1,33.3,30.21,ENE,77,10.4,10.4,68,0.00,OVC,,0.00,WeatherDisplay:10.37,2013-04-04 15:39:00,
2013-04-04 11:40:00,43.2,33.0,30.21,NE,36,10.4,10.4,67,0.00,OVC,,0.00,WeatherDisplay:10.37,2013-04-04 15:40:00,
2013-04-04 11:42:00,43.1,32.9,30.21,East,85,10.4,10.4,67,0.00,OVC,,0.00,WeatherDisplay:10.37,2013-04-04 15:42:00,
2013-04-04 11:45:00,43.1,33.3,30.21,ENE,60,12.3,12.3,68,0.00,OVC,,0.00,WeatherDisplay:10.37,2013-04-04 15:45:00,
2013-04-04 11:47:00,43.0,33.2,30.21,East,87,9.2,9.2,68,0.00,OVC,,0.00,WeatherDisplay:10.37,2013-04-04 15:47:00,
2013-04-04 11:50:00,42.9,33.4,30.22,ENE,58,7.0,7.0,69,0.00,OVC,,0.00,WeatherDisplay:10.37,2013-04-04 15:50:00,
2013-04-04 11:53:00,42.8,33.0,30.22,NNE,30,10.4,10.4,68,0.00,OVC,,0.00,WeatherDisplay:10.37,2013-04-04 15:53:00,
2013-04-04 11:55:00,42.7,33.2,30.22,East,86,9.2,9.2,69,0.00,OVC,,0.00,WeatherDisplay:10.37,2013-04-04 15:55:00,
2013-04-04 11:56:00,42.7,33.2,30.22,ENE,66,9.2,9.2,69,0.00,OVC,,0.00,WeatherDisplay:10.37,2013-04-04 15:56:00,
2013-04-04 11:59:00,42.5,33.4,30.22,East,84,7.0,7.0,70,0.00,OVC,,0.00,WeatherDisplay:10.37,2013-04-04 15:59:00,
2013-04-04 12:00:00,42.5,33.4,30.21,ENE,65,9.2,9.2,70,0.00,-RA,,0.00,WeatherDisplay:10.37,2013-04-04 16:00:00,
2013-04-04 12:01:00,42.5,33.4,30.21,ENE,67,9.2,9.2,70,0.00,-RA,,0.00,WeatherDisplay:10.37,2013-04-04 16:01:00,
2013-04-04 12:04:00,42.4,34.0,30.21,NE,53,6.9,6.9,72,0.00,-RA,,0.00,WeatherDisplay:10.37,2013-04-04 16:04:00,
2013-04-04 12:06:00,42.4,34.0,30.21,ENE,59,6.9,6.9,72,0.00,-RA,,0.00,WeatherDisplay:10.37,2013-04-04 16:06:00,
2013-04-04 12:07:00,42.4,34.0,30.21,ENE,59,5.8,5.8,72,0.00,-RA,,0.00,WeatherDisplay:10.37,2013-04-04 16:07:00,
2013-04-04 12:10:00,42.4,34.7,30.21,ENE,72,3.5,3.5,74,0.00,-RA,,0.00,WeatherDisplay:10.37,2013-04-04 16:10:00,
2013-04-04 12:11:00,42.4,34.7,30.21,NE,55,3.5,3.5,74,0.00,-RA,,0.00,WeatherDisplay:10.37,2013-04-04 16:11:00,
2013-04-04 12:12:00,42.4,34.7,30.21,NE,56,3.5,3.5,74,0.00,-RA,,0.00,WeatherDisplay:10.37,2013-04-04 16:12:00,
2013-04-04 12:15:00,42.3,34.9,30.21,ESE,113,5.8,5.8,75,0.00,-RA,,0.00,WeatherDisplay:10.37,2013-04-04 16:15:00,
2013-04-04 12:16:00,42.3,34.9,30.21,ENE,68,3.5,3.5,75,0.00,-RA,,0.00,WeatherDisplay:10.37,2013-04-04 16:16:00,
2013-04-04 12:17:00,42.3,34.9,30.21,ENE,60,3.5,3.5,75,0.00,-RA,,0.00,WeatherDisplay:10.37,2013-04-04 16:17:00,
2013-04-04 12:20:00,42.0,35.0,30.21,ENE,65,3.5,3.5,76,0.01,-RA,,0.01,WeatherDisplay:10.37,2013-04-04 16:20:00,
2013-04-04 12:21:00,41.9,35.2,30.21,East,79,9.2,9.2,77,0.01,-RA,,0.01,WeatherDisplay:10.37,2013-04-04 16:21:00,
2013-04-04 12:22:00,41.9,35.2,30.21,NE,47,9.2,9.2,77,0.01,-RA,,0.01,WeatherDisplay:10.37,2013-04-04 16:22:00,
2013-04-04 12:27:00,41.5,35.5,30.20,ENE,71,6.9,6.9,79,0.02,-RA,,0.02,WeatherDisplay:10.37,2013-04-04 16:27:00,
2013-04-04 12:32:00,41.2,36.4,30.19,ENE,65,3.5,3.5,83,0.02,-RA,,0.02,WeatherDisplay:10.37,2013-04-04 16:32:00,
2013-04-04 12:33:00,41.2,36.4,30.20,NE,36,5.8,5.8,83,0.02,-RA,,0.02,WeatherDisplay:10.37,2013-04-04 16:33:00,
2013-04-04 12:37:00,40.9,35.8,30.19,NNE,16,3.5,3.8,82,0.03,-RA,,0.03,WeatherDisplay:10.37,2013-04-04 16:37:00,
2013-04-04 12:38:00,40.9,35.8,30.19,North,353,5.8,5.8,82,0.03,-RA,,0.03,WeatherDisplay:10.37,2013-04-04 16:38:00,
2013-04-04 12:42:00,40.6,36.1,30.19,East,81,2.3,2.3,84,0.04,-RA,,0.04,WeatherDisplay:10.37,2013-04-04 16:42:00,
2013-04-04 12:43:00,40.6,36.1,30.19,ENE,76,2.3,2.3,84,0.04,-RA,,0.04,WeatherDisplay:10.37,2013-04-04 16:43:00,
2013-04-04 12:47:00,40.5,36.0,30.20,West,273,6.9,6.9,84,0.04,-RA,,0.04,WeatherDisplay:10.37,2013-04-04 16:47:00,
2013-04-04 12:48:00,40.5,36.0,30.20,NW,314,5.8,5.8,84,0.04,-RA,,0.04,WeatherDisplay:10.37,2013-04-04 16:48:00,
2013-04-04 12:52:00,40.3,36.1,30.20,North,11,3.5,3.5,85,0.05,-RA,,0.05,WeatherDisplay:10.37,2013-04-04 16:52:00,
2013-04-04 12:53:00,40.3,36.1,30.20,NNW,334,3.5,3.5,85,0.05,-RA,,0.05,WeatherDisplay:10.37,2013-04-04 16:53:00,
2013-04-04 12:57:00,40.0,36.2,30.19,NNW,342,5.8,5.8,86,0.07,-RA,,0.07,WeatherDisplay:10.37,2013-04-04 16:57:00,
2013-04-04 12:58:00,40.0,36.2,30.19,North,352,5.8,5.8,86,0.07,-RA,,0.07,WeatherDisplay:10.37,2013-04-04 16:58:00,
2013-04-04 13:01:00,39.9,36.3,30.18,North,4,5.8,5.8,87,0.08,-RA,,0.08,WeatherDisplay:10.37,2013-04-04 17:01:00,
2013-04-04 13:03:00,39.7,36.1,30.18,NE,47,5.8,5.8,87,0.10,RA,,0.10,WeatherDisplay:10.37,2013-04-04 17:03:00,
2013-04-04 13:06:00,39.6,36.3,30.19,WNW,297,3.5,3.5,88,0.11,RA,,0.11,WeatherDisplay:10.37,2013-04-04 17:06:00,
2013-04-04 13:08:00,39.5,36.2,30.19,NE,49,9.2,9.2,88,0.12,RA,,0.12,WeatherDisplay:10.37,2013-04-04 17:08:00,
2013-04-04 13:09:00,39.5,36.2,30.19,NNE,30,9.2,9.2,88,0.12,RA,,0.12,WeatherDisplay:10.37,2013-04-04 17:09:00,
2013-04-04 13:13:00,39.4,36.1,30.20,NNE,21,3.5,3.5,88,0.14,RA,,0.14,WeatherDisplay:10.37,2013-04-04 17:13:00,
2013-04-04 13:14:00,39.3,36.0,30.20,North,351,2.3,2.3,88,0.15,RA,,0.15,WeatherDisplay:10.37,2013-04-04 17:14:00,
2013-04-04 13:18:00,39.3,36.0,30.21,East,95,3.5,3.5,88,0.16,RA,,0.17,WeatherDisplay:10.37,2013-04-04 17:18:00,
2013-04-04 13:19:00,39.3,36.0,30.21,East,95,2.3,2.3,88,0.16,RA,,0.17,WeatherDisplay:10.37,2013-04-04 17:19:00,
2013-04-04 13:20:00,39.3,36.3,30.21,East,86,2.3,2.3,89,0.16,RA,,0.17,WeatherDisplay:10.37,2013-04-04 17:20:00,
2013-04-04 13:23:00,39.3,36.0,30.21,ENE,58,5.3,5.3,88,0.17,RA,,0.18,WeatherDisplay:10.37,2013-04-04 17:23:00,
2013-04-04 13:24:00,39.3,36.0,30.21,NE,52,3.5,3.5,88,0.17,RA,,0.18,WeatherDisplay:10.37,2013-04-04 17:24:00,
2013-04-04 13:25:00,39.3,36.3,30.21,NNW,327,3.5,3.5,89,0.16,RA,,0.18,WeatherDisplay:10.37,2013-04-04 17:25:00,
2013-04-04 13:28:00,39.2,36.2,30.20,North,5,3.5,3.5,89,0.17,RA,,0.19,WeatherDisplay:10.37,2013-04-04 17:28:00,
2013-04-04 13:29:00,39.2,36.3,30.20,North,8,1.0,7.0,89,0.00,RA,,0.19,WeatherDisplay:10.37,2013-04-04 17:29:00,
2013-04-04 13:31:00,39.3,36.6,30.20,North,8,3.5,3.5,90,0.18,RA,,0.20,WeatherDisplay:10.37,2013-04-04 17:31:00,
2013-04-04 13:34:00,39.1,36.1,30.18,North,349,13.8,13.8,89,0.17,RA,,0.21,WeatherDisplay:10.37,2013-04-04 17:34:00,
2013-04-04 13:35:00,39.1,36.1,30.18,NNW,330,13.8,13.8,89,0.17,RA,,0.21,WeatherDisplay:10.37,2013-04-04 17:35:00,
2013-04-04 13:36:00,39.1,36.4,30.18,North,353,5.8,5.8,90,0.18,RA,,0.21,WeatherDisplay:10.37,2013-04-04 17:36:00,
2013-04-04 13:39:00,39.0,36.3,30.17,ENE,61,6.9,6.9,90,0.18,RA,,0.21,WeatherDisplay:10.37,2013-04-04 17:39:00,
2013-04-04 13:40:00,38.9,36.2,30.17,NE,49,7.0,7.0,90,0.19,RA,,0.22,WeatherDisplay:10.37,2013-04-04 17:40:00,
2013-04-04 13:42:00,38.9,35.9,30.17,East,80,6.9,6.9,89,0.18,RA,,0.22,WeatherDisplay:10.37,2013-04-04 17:42:00,
2013-04-04 13:44:00,38.8,36.1,30.18,East,84,5.8,5.8,90,0.19,RA,,0.23,WeatherDisplay:10.37,2013-04-04 17:44:00,
2013-04-04 13:45:00,38.8,36.1,30.18,East,84,5.8,5.8,90,0.19,RA,,0.23,WeatherDisplay:10.37,2013-04-04 17:45:00,
2013-04-04 13:47:00,38.7,36.0,30.18,NNE,33,3.5,3.5,90,0.20,RA,,0.24,WeatherDisplay:10.37,2013-04-04 17:47:00,
2013-04-04 13:50:00,38.7,36.0,30.19,NNW,328,3.5,3.5,90,0.21,RA,,0.25,WeatherDisplay:10.37,2013-04-04 17:50:00,
2013-04-04 13:51:00,38.7,36.3,30.19,North,351,2.3,2.3,91,0.20,RA,,0.25,WeatherDisplay:10.37,2013-04-04 17:51:00,
2013-04-04 13:52:00,38.7,36.3,30.18,WSW,255,2.3,2.3,91,0.20,RA,,0.25,WeatherDisplay:10.37,2013-04-04 17:52:00,
2013-04-04 13:55:00,38.7,36.3,30.18,NNE,32,3.5,3.5,91,0.21,RA,,0.26,WeatherDisplay:10.37,2013-04-04 17:55:00,
2013-04-04 13:56:00,38.7,36.3,30.19,ENE,73,2.3,2.3,91,0.20,RA,,0.26,WeatherDisplay:10.37,2013-04-04 17:56:00,
2013-04-04 13:57:00,38.7,36.3,30.19,ENE,70,2.3,2.3,91,0.20,RA,,0.26,WeatherDisplay:10.37,2013-04-04 17:57:00,
2013-04-04 14:00:00,38.7,36.3,30.18,NNW,340,6.9,6.9,91,0.20,RA,,0.27,WeatherDisplay:10.37,2013-04-04 18:00:00,
2013-04-04 14:01:00,38.7,36.3,30.18,NNW,338,5.8,5.8,91,0.20,RA,,0.28,WeatherDisplay:10.37,2013-04-04 18:01:00,
2013-04-04 14:02:00,38.7,36.3,30.18,NNW,335,5.8,5.8,91,0.20,RA,,0.28,WeatherDisplay:10.37,2013-04-04 18:02:00,
2013-04-04 14:05:00,38.6,36.2,30.18,NNE,12,6.9,6.9,91,0.18,RA,,0.29,WeatherDisplay:10.37,2013-04-04 18:05:00,
2013-04-04 14:07:00,38.6,36.2,30.18,NNW,333,5.8,5.8,91,0.18,RA,,0.29,WeatherDisplay:10.37,2013-04-04 18:07:00,
2013-04-04 14:08:00,38.5,36.1,30.18,NW,325,5.8,5.8,91,0.17,RA,,0.29,WeatherDisplay:10.37,2013-04-04 18:08:00,
2013-04-04 14:10:00,38.5,36.1,30.18,NW,315,5.3,5.3,91,0.17,RA,,0.30,WeatherDisplay:10.37,2013-04-04 18:10:00,
2013-04-04 14:12:00,38.5,36.1,30.18,NE,37,5.3,5.3,91,0.17,RA,,0.30,WeatherDisplay:10.37,2013-04-04 18:12:00,
2013-04-04 14:13:00,38.4,36.0,30.17,NE,41,7.0,7.0,91,0.16,RA,,0.30,WeatherDisplay:10.37,2013-04-04 18:13:00,
2013-04-04 14:15:00,38.4,36.0,30.17,ENE,70,9.2,9.2,91,0.15,RA,,0.31,WeatherDisplay:10.37,2013-04-04 18:15:00,
2013-04-04 14:17:00,38.4,36.0,30.17,North,359,5.8,5.8,91,0.15,RA,,0.31,WeatherDisplay:10.37,2013-04-04 18:17:00,
2013-04-04 14:19:00,38.4,36.3,30.17,ENE,78,6.9,6.9,92,0.16,RA,,0.32,WeatherDisplay:10.37,2013-04-04 18:19:00,
2013-04-04 14:21:00,38.3,35.9,30.17,NE,43,9.2,9.2,91,0.15,RA,,0.33,WeatherDisplay:10.37,2013-04-04 18:21:00,
2013-04-04 14:22:00,38.3,35.9,30.17,NNE,25,6.9,6.9,91,0.16,RA,,0.33,WeatherDisplay:10.37,2013-04-04 18:22:00,
2013-04-04 14:23:00,38.3,35.9,30.16,ENE,77,5.8,5.8,91,0.16,RA,,0.33,WeatherDisplay:10.37,2013-04-04 18:23:00,
2013-04-04 14:25:00,38.3,35.9,30.16,NE,42,5.8,5.8,91,0.15,RA,,0.34,WeatherDisplay:10.37,2013-04-04 18:25:00,
2013-04-04 14:26:00,38.3,35.9,30.16,East,82,10.4,10.4,91,0.16,RA,,0.34,WeatherDisplay:10.37,2013-04-04 18:26:00,
2013-04-04 14:27:00,38.3,35.9,30.16,NNW,330,9.2,9.2,91,0.15,RA,,0.34,WeatherDisplay:10.37,2013-04-04 18:27:00,
2013-04-04 14:28:00,38.3,35.9,30.16,ENE,72,9.2,9.2,91,0.15,RA,,0.34,WeatherDisplay:10.37,2013-04-04 18:28:00,
2013-04-04 14:30:00,38.3,35.9,30.16,NW,325,5.8,5.8,91,0.15,RA,,0.34,WeatherDisplay:10.37,2013-04-04 18:30:00,
2013-04-04 14:32:00,38.4,36.3,30.16,NNW,341,5.3,5.3,92,0.14,RA,,0.34,WeatherDisplay:10.37,2013-04-04 18:32:00,
2013-04-04 14:34:00,38.4,36.0,30.15,East,93,9.2,9.2,91,0.14,RA,,0.34,WeatherDisplay:10.37,2013-04-04 18:34:00,
2013-04-04 14:35:00,38.4,36.0,30.15,NNE,32,12.7,12.7,91,0.14,RA,,0.34,WeatherDisplay:10.37,2013-04-04 18:35:00,
2013-04-04 14:37:00,38.5,36.4,30.15,East,98,3.5,3.5,92,0.14,RA,,0.35,WeatherDisplay:10.37,2013-04-04 18:37:00,
2013-04-04 14:38:00,38.5,36.4,30.15,NW,319,3.5,3.5,92,0.14,RA,,0.35,WeatherDisplay:10.37,2013-04-04 18:38:00,
2013-04-04 14:39:00,38.5,36.4,30.15,NNE,13,7.0,7.0,92,0.14,RA,,0.35,WeatherDisplay:10.37,2013-04-04 18:39:00,
2013-04-04 14:40:00,38.5,36.4,30.15,North,349,7.0,7.0,92,0.14,RA,,0.35,WeatherDisplay:10.37,2013-04-04 18:40:00,
2013-04-04 14:43:00,38.4,36.0,30.15,NNE,22,9.2,9.2,91,0.13,RA,,0.35,WeatherDisplay:10.37,2013-04-04 18:43:00,
2013-04-04 14:44:00,38.3,35.9,30.14,NNE,30,3.0,13.0,91,0.00,RA,,0.35,WeatherDisplay:10.37,2013-04-04 18:44:00,
2013-04-04 14:45:00,38.3,35.9,30.15,NNW,330,5.8,5.8,91,0.12,RA,,0.35,WeatherDisplay:10.37,2013-04-04 18:45:00,
2013-04-04 14:48:00,38.3,35.9,30.14,NNE,12,6.9,6.9,91,0.11,RA,,0.35,WeatherDisplay:10.37,2013-04-04 18:48:00,
2013-04-04 14:49:00,38.3,35.9,30.14,NE,36,7.0,7.0,91,0.10,RA,,0.35,WeatherDisplay:10.37,2013-04-04 18:49:00,
2013-04-04 14:50:00,38.3,35.9,30.14,NNE,15,5.8,5.8,91,0.10,-RA,,0.35,WeatherDisplay:10.37,2013-04-04 18:50:00,
2013-04-04 14:53:00,38.2,35.8,30.14,NNE,25,9.2,9.2,91,0.09,-RA,,0.35,WeatherDisplay:10.37,2013-04-04 18:53:00,
2013-04-04 14:54:00,38.2,35.8,30.14,NE,53,9.2,9.2,91,0.09,-RA,,0.35,WeatherDisplay:10.37,2013-04-04 18:54:00,
2013-04-04 14:55:00,38.2,36.1,30.13,East,82,6.9,6.9,92,0.09,-RA,,0.35,WeatherDisplay:10.37,2013-04-04 18:55:00,
2013-04-04 14:59:00,38.3,36.2,30.13,WNW,302,6.9,6.9,92,0.08,-RA,,0.35,WeatherDisplay:10.37,2013-04-04 18:59:00,
2013-04-04 15:00:00,38.3,36.2,30.13,East,96,5.8,5.8,92,0.08,-RA,,0.35,WeatherDisplay:10.37,2013-04-04 19:00:00,
2013-04-04 15:04:00,38.3,36.2,30.13,NNW,333,16.1,16.1,92,0.07,OVC,,0.35,WeatherDisplay:10.37,2013-04-04 19:04:00,
2013-04-04 15:05:00,38.2,36.1,30.13,NNW,343,9.2,9.2,92,0.07,OVC,,0.36,WeatherDisplay:10.37,2013-04-04 19:05:00,
2013-04-04 15:06:00,38.3,36.2,30.13,NW,318,6.9,6.9,92,0.07,RA,,0.36,WeatherDisplay:10.37,2013-04-04 19:06:00,
2013-04-04 15:09:00,38.1,35.7,30.13,NW,321,10.4,10.4,91,0.08,RA,,0.37,WeatherDisplay:10.37,2013-04-04 19:09:00,
2013-04-04 15:10:00,38.1,35.7,30.13,North,356,12.7,12.7,91,0.07,RA,,0.37,WeatherDisplay:10.37,2013-04-04 19:10:00,
2013-04-04 15:12:00,38.0,35.6,30.12,NW,311,8.7,8.7,91,0.07,RA,,0.37,WeatherDisplay:10.37,2013-04-04 19:12:00,
2013-04-04 15:14:00,37.9,35.5,30.12,ENE,68,5.8,5.8,91,0.08,RA,,0.38,WeatherDisplay:10.37,2013-04-04 19:14:00,
2013-04-04 15:15:00,37.9,35.5,30.12,NE,49,6.9,6.9,91,0.07,RA,,0.38,WeatherDisplay:10.37,2013-04-04 19:15:00,
2013-04-04 15:16:00,37.9,35.5,30.12,NNW,330,5.8,5.8,91,0.07,RA,,0.38,WeatherDisplay:10.37,2013-04-04 19:16:00,
2013-04-04 15:17:00,37.8,35.7,30.12,East,82,5.8,5.8,92,0.07,RA,,0.38,WeatherDisplay:10.37,2013-04-04 19:17:00,
2013-04-04 15:20:00,37.7,35.3,30.11,East,94,10.5,10.5,91,0.07,RA,,0.39,WeatherDisplay:10.37,2013-04-04 19:20:00,
2013-04-04 15:21:00,37.7,35.3,30.11,NE,41,12.7,12.7,91,0.07,RA,,0.40,WeatherDisplay:10.37,2013-04-04 19:21:00,
2013-04-04 15:22:00,37.6,35.5,30.11,NE,36,12.7,12.7,92,0.07,RA,,0.40,WeatherDisplay:10.37,2013-04-04 19:22:00,
2013-04-04 15:25:00,37.5,35.1,30.10,ENE,58,13.8,13.8,91,0.08,RA,,0.41,WeatherDisplay:10.37,2013-04-04 19:25:00,
2013-04-04 15:26:00,37.4,35.0,30.10,NW,310,10.4,10.4,91,0.07,RA,,0.41,WeatherDisplay:10.37,2013-04-04 19:26:00,
2013-04-04 15:27:00,37.3,34.9,30.10,NNW,329,16.1,16.1,91,0.07,RA,,0.41,WeatherDisplay:10.37,2013-04-04 19:27:00,
2013-04-04 15:30:00,37.2,35.1,30.10,North,349,5.8,5.8,92,0.08,RA,,0.42,WeatherDisplay:10.37,2013-04-04 19:30:00,
2013-04-04 15:31:00,37.2,35.1,30.10,NE,37,5.8,5.8,92,0.08,RA,,0.42,WeatherDisplay:10.37,2013-04-04 19:31:00,
2013-04-04 15:33:00,37.2,35.1,30.10,NNW,347,9.2,9.2,92,0.08,RA,,0.42,WeatherDisplay:10.37,2013-04-04 19:33:00,
2013-04-04 15:36:00,37.1,35.0,30.11,NE,39,5.8,5.8,92,0.07,RA,,0.42,WeatherDisplay:10.37,2013-04-04 19:36:00,
2013-04-04 15:37:00,37.1,35.0,30.10,NE,54,7.0,7.0,92,0.07,RA,,0.42,WeatherDisplay:10.37,2013-04-04 19:37:00,
2013-04-04 15:38:00,37.1,35.0,30.09,NNE,30,10.5,10.5,92,0.08,RA,,0.43,WeatherDisplay:10.37,2013-04-04 19:38:00,
2013-04-04 15:41:00,36.9,34.8,30.08,ENE,58,12.7,12.7,92,0.08,RA,,0.43,WeatherDisplay:10.37,2013-04-04 19:41:00,
2013-04-04 15:42:00,36.9,34.8,30.08,NW,321,17.3,17.3,92,0.08,RA,,0.44,WeatherDisplay:10.37,2013-04-04 19:42:00,
2013-04-04 15:43:00,36.8,34.7,30.08,SW,236,6.9,6.9,92,0.09,RA,,0.44,WeatherDisplay:10.37,2013-04-04 19:43:00,
2013-04-04 15:44:00,36.8,34.7,30.08,East,83,6.9,6.9,92,0.10,RA,,0.45,WeatherDisplay:10.37,2013-04-04 19:44:00,
2013-04-04 15:46:00,36.8,34.7,30.09,NNE,25,9.2,9.2,92,0.11,RA,,0.46,WeatherDisplay:10.37,2013-04-04 19:46:00,
2013-04-04 15:48:00,36.7,34.6,30.09,NE,44,10.4,10.4,92,0.11,RA,,0.46,WeatherDisplay:10.37,2013-04-04 19:48:00,
2013-04-04 15:49:00,36.7,34.6,30.10,NE,53,5.8,5.8,92,0.11,RA,,0.46,WeatherDisplay:10.37,2013-04-04 19:49:00,
2013-04-04 15:50:00,36.6,34.5,30.10,NW,307,6.9,6.9,92,0.12,-RA,,0.47,WeatherDisplay:10.37,2013-04-04 19:50:00,
2013-04-04 15:52:00,36.6,34.5,30.10,NNW,328,8.7,8.7,92,0.12,-RA,,0.47,WeatherDisplay:10.37,2013-04-04 19:52:00,
2013-04-04 15:53:00,36.5,34.4,30.09,NW,310,9.2,9.2,92,0.13,-RA,,0.48,WeatherDisplay:10.37,2013-04-04 19:53:00,
2013-04-04 15:54:00,36.5,34.4,30.09,ENE,58,12.7,12.7,92,0.13,-RA,,0.48,WeatherDisplay:10.37,2013-04-04 19:54:00,
2013-04-04 15:56:00,36.4,34.3,30.10,NE,56,6.9,6.9,92,0.13,-RA,,0.49,WeatherDisplay:10.37,2013-04-04 19:56:00,
2013-04-04 15:57:00,36.4,34.3,30.09,ENE,60,10.4,10.4,92,0.14,-RA,,0.49,WeatherDisplay:10.37,2013-04-04 19:57:00,
2013-04-04 15:58:00,36.4,34.3,30.09,ENE,68,12.7,12.7,92,0.15,-RA,,0.50,WeatherDisplay:10.37,2013-04-04 19:58:00,
2013-04-04 16:00:00,36.3,34.2,30.09,North,5,10.4,10.4,92,0.15,-RA,,0.50,WeatherDisplay:10.37,2013-04-04 20:00:00,
2013-04-04 16:02:00,36.2,34.1,30.08,ENE,60,13.8,13.8,92,0.15, +RA,,0.51,WeatherDisplay:10.37,2013-04-04 20:02:00,
2013-04-04 16:04:00,36.2,34.1,30.07,ENE,58,10.5,10.5,92,0.16, +RA,,0.51,WeatherDisplay:10.37,2013-04-04 20:04:00,
2013-04-04 16:05:00,36.2,34.1,30.07,NE,47,10.4,10.4,92,0.16, +RA,,0.52,WeatherDisplay:10.37,2013-04-04 20:05:00,
2013-04-04 16:07:00,36.1,34.0,30.06,NNE,23,9.2,9.2,92,0.16, +RA,,0.53,WeatherDisplay:10.37,2013-04-04 20:07:00,
2013-04-04 16:10:00,36.1,34.0,30.06,NE,34,12.7,12.7,92,0.17, +RA,,0.53,WeatherDisplay:10.37,2013-04-04 20:10:00,
2013-04-04 16:12:00,36.1,34.3,30.06,North,355,6.9,6.9,93,0.17, +RA,,0.54,WeatherDisplay:10.37,2013-04-04 20:12:00,
2013-04-04 16:13:00,36.0,34.2,30.05,East,83,5.8,5.8,93,0.17, +RA,,0.54,WeatherDisplay:10.37,2013-04-04 20:13:00,
2013-04-04 16:15:00,36.0,34.2,30.06,WNW,290,5.8,5.8,93,0.16, +RA,,0.54,WeatherDisplay:10.37,2013-04-04 20:15:00,
2013-04-04 16:17:00,36.0,34.2,30.06,NNE,20,9.2,9.2,93,0.16, +RA,,0.54,WeatherDisplay:10.37,2013-04-04 20:17:00,
2013-04-04 16:19:00,36.0,34.2,30.06,ENE,72,12.7,12.7,93,0.15, +RA,,0.54,WeatherDisplay:10.37,2013-04-04 20:19:00,
2013-04-04 16:20:00,36.0,34.2,30.06,ENE,75,12.7,12.7,93,0.15, +RA,,0.54,WeatherDisplay:10.37,2013-04-04 20:20:00,
2013-04-04 16:21:00,36.0,34.2,30.06,East,90,10.5,10.5,93,0.15, +RA,,0.54,WeatherDisplay:10.37,2013-04-04 20:21:00,
2013-04-04 16:22:00,35.9,34.1,30.06,NNE,31,10.4,10.4,93,0.14, +RA,,0.54,WeatherDisplay:10.37,2013-04-04 20:22:00,
2013-04-04 16:24:00,35.9,34.1,30.06,ENE,64,12.7,12.7,93,0.14, +RA,,0.55,WeatherDisplay:10.37,2013-04-04 20:24:00,
2013-04-04 16:25:00,35.9,34.1,30.06,NE,55,12.7,12.7,93,0.14, +RA,,0.56,WeatherDisplay:10.37,2013-04-04 20:25:00,
2013-04-04 16:26:00,35.9,34.1,30.06,NW,316,13.8,13.8,93,0.15, +RA,,0.56,WeatherDisplay:10.37,2013-04-04 20:26:00,
2013-04-04 16:30:00,35.9,34.1,30.06,NNE,20,9.2,9.2,93,0.14, +RA,,0.56,WeatherDisplay:10.37,2013-04-04 20:30:00,
2013-04-04 16:32:00,35.9,34.1,30.06,ENE,77,12.7,12.7,93,0.14, +RA,,0.56,WeatherDisplay:10.37,2013-04-04 20:32:00,
2013-04-04 16:35:00,35.9,34.1,30.06,NW,322,19.6,19.6,93,0.14, +RA,,0.56,WeatherDisplay:10.37,2013-04-04 20:35:00,
2013-04-04 16:37:00,35.9,34.1,30.06,NNE,13,12.3,12.3,93,0.14, +RA,,0.56,WeatherDisplay:10.37,2013-04-04 20:37:00,
2013-04-04 16:41:00,35.9,34.1,30.06,WNW,300,13.8,13.8,93,0.13, +RA,,0.56,WeatherDisplay:10.37,2013-04-04 20:41:00,
2013-04-04 16:42:00,35.9,34.1,30.06,NE,37,12.7,12.7,93,0.13, +RA,,0.56,WeatherDisplay:10.37,2013-04-04 20:42:00,
2013-04-04 16:46:00,35.8,34.0,30.08,NW,312,7.0,7.0,93,0.11, +RA,,0.56,WeatherDisplay:10.37,2013-04-04 20:46:00,
2013-04-04 16:47:00,35.8,34.0,30.08,NE,43,9.2,9.2,93,0.10, +RA,,0.56,WeatherDisplay:10.37,2013-04-04 20:47:00,
2013-04-04 16:48:00,35.8,34.0,30.08,NW,315,6.9,6.9,93,0.10, +RA,,0.56,WeatherDisplay:10.37,2013-04-04 20:48:00,
2013-04-04 16:51:00,35.8,34.0,30.08,NNW,345,3.5,3.5,93,0.09,-RA,,0.56,WeatherDisplay:10.37,2013-04-04 20:51:00,
2013-04-04 16:53:00,35.7,33.9,30.08,NNW,345,3.5,3.5,93,0.08,-RA,,0.56,WeatherDisplay:10.37,2013-04-04 20:53:00,
2013-04-04 16:57:00,35.7,34.1,30.08,NNW,331,6.9,6.9,94,0.09,-RA,,0.57,WeatherDisplay:10.37,2013-04-04 20:57:00,
2013-04-04 16:58:00,35.7,34.1,30.08,NNE,19,5.8,5.8,94,0.07,-RA,,0.57,WeatherDisplay:10.37,2013-04-04 20:58:00,
2013-04-04 17:02:00,35.7,34.1,30.09,NW,311,3.5,3.5,94,0.08, +RA,,0.58,WeatherDisplay:10.37,2013-04-04 21:02:00,
2013-04-04 17:03:00,35.7,34.1,30.09,WNW,295,5.8,5.8,94,0.07, +RA,,0.58,WeatherDisplay:10.37,2013-04-04 21:03:00,
2013-04-04 17:04:00,35.6,34.0,30.08,West,259,5.8,5.8,94,0.08, +RA,,0.59,WeatherDisplay:10.37,2013-04-04 21:04:00,
2013-04-04 17:07:00,35.6,34.0,30.08,ENE,61,10.4,10.4,94,0.07, +RA,,0.60,WeatherDisplay:10.37,2013-04-04 21:07:00,
2013-04-04 17:08:00,35.6,34.0,30.07,ENE,64,7.0,7.0,94,0.07, +RA,,0.60,WeatherDisplay:10.37,2013-04-04 21:08:00,
2013-04-04 17:09:00,35.6,34.0,30.07,NNE,32,7.0,7.0,94,0.07, +RA,,0.60,WeatherDisplay:10.37,2013-04-04 21:09:00,
2013-04-04 17:12:00,35.5,33.9,30.07,ESE,120,3.5,3.5,94,0.07, +RA,,0.61,WeatherDisplay:10.37,2013-04-04 21:12:00,
2013-04-04 17:14:00,35.5,33.9,30.08,East,101,5.3,5.3,94,0.07, +RA,,0.61,WeatherDisplay:10.37,2013-04-04 21:14:00,
2013-04-04 17:15:00,35.5,33.9,30.08,ENE,68,5.8,5.8,94,0.07, +RA,,0.62,WeatherDisplay:10.37,2013-04-04 21:15:00,
2013-04-04 17:18:00,35.5,33.9,30.08,NW,320,5.3,5.3,94,0.08, +RA,,0.62,WeatherDisplay:10.37,2013-04-04 21:18:00,
2013-04-04 17:19:00,35.5,33.9,30.08,NNE,18,5.8,5.8,94,0.08, +RA,,0.62,WeatherDisplay:10.37,2013-04-04 21:19:00,
2013-04-04 17:20:00,35.4,33.8,30.08,NNE,16,2.3,2.3,94,0.08, +RA,,0.62,WeatherDisplay:10.37,2013-04-04 21:20:00,
2013-04-04 17:24:00,35.4,33.8,30.07,North,6,10.4,10.4,94,0.09, +RA,,0.64,WeatherDisplay:10.37,2013-04-04 21:24:00,
2013-04-04 17:25:00,35.4,33.8,30.07,NNE,32,6.9,6.9,94,0.09, +RA,,0.64,WeatherDisplay:10.37,2013-04-04 21:25:00,
2013-04-04 17:30:00,35.4,33.8,30.05,NE,49,6.9,6.9,94,0.10, +RA,,0.66,WeatherDisplay:10.37,2013-04-04 21:30:00,
2013-04-04 17:31:00,35.4,34.1,30.05,ENE,60,5.3,5.3,95,0.10, +RA,,0.66,WeatherDisplay:10.37,2013-04-04 21:31:00,
2013-04-04 17:32:00,35.4,34.1,30.05,East,85,9.2,9.2,95,0.10, +RA,,0.66,WeatherDisplay:10.37,2013-04-04 21:32:00,
2013-04-04 17:35:00,35.4,34.1,30.06,NW,319,1.8,1.8,95,0.10, +RA,,0.66,WeatherDisplay:10.37,2013-04-04 21:35:00,
2013-04-04 17:36:00,35.4,34.1,30.06,NW,319,9.2,9.2,95,0.11, +RA,,0.67,WeatherDisplay:10.37,2013-04-04 21:36:00,
2013-04-04 17:37:00,35.4,34.1,30.06,WNW,294,9.2,9.2,95,0.11, +RA,,0.67,WeatherDisplay:10.37,2013-04-04 21:37:00,
2013-04-04 17:40:00,35.4,34.1,30.06,NNE,27,3.5,3.5,95,0.11, +RA,,0.67,WeatherDisplay:10.37,2013-04-04 21:40:00,
2013-04-04 17:41:00,35.3,34.0,30.07,NNE,33,9.2,9.2,95,0.11, +RA,,0.67,WeatherDisplay:10.37,2013-04-04 21:41:00,
2013-04-04 17:43:00,35.3,34.0,30.07,NE,47,5.8,5.8,95,0.11, +RA,,0.67,WeatherDisplay:10.37,2013-04-04 21:43:00,
2013-04-04 17:45:00,35.3,34.0,30.07,ENE,58,6.9,6.9,95,0.11, +RA,,0.67,WeatherDisplay:10.37,2013-04-04 21:45:00,
2013-04-04 17:46:00,35.3,34.0,30.07,East,80,8.7,8.7,95,0.11, +RA,,0.67,WeatherDisplay:10.37,2013-04-04 21:46:00,
2013-04-04 17:47:00,35.3,34.0,30.07,ENE,58,12.7,12.7,95,0.11, +RA,,0.67,WeatherDisplay:10.37,2013-04-04 21:47:00,
2013-04-04 17:48:00,35.3,34.0,30.07,ENE,73,10.4,10.4,95,0.11, +RA,,0.67,WeatherDisplay:10.37,2013-04-04 21:48:00,
2013-04-04 17:50:00,35.2,33.9,30.08,NNW,335,10.4,10.4,95,0.11, +RA,,0.67,WeatherDisplay:10.37,2013-04-04 21:50:00,
2013-04-04 17:51:00,35.2,33.9,30.08,NNW,348,6.9,6.9,95,0.11,RA,,0.67,WeatherDisplay:10.37,2013-04-04 21:51:00,
2013-04-04 17:52:00,35.3,34.0,30.08,NE,51,5.3,5.3,95,0.11,RA,,0.67,WeatherDisplay:10.37,2013-04-04 21:52:00,
2013-04-04 17:53:00,35.3,34.0,30.08,North,349,5.8,5.8,95,0.11,RA,,0.67,WeatherDisplay:10.37,2013-04-04 21:53:00,
2013-04-04 17:55:00,35.3,34.0,30.08,NE,55,3.5,3.5,95,0.12,RA,,0.69,WeatherDisplay:10.37,2013-04-04 21:55:00,
2013-04-04 17:56:00,35.3,34.0,30.07,NNE,15,3.5,3.5,95,0.12,RA,,0.70,WeatherDisplay:10.37,2013-04-04 21:56:00,
2013-04-04 17:58:00,35.3,34.0,30.06,NE,53,6.9,6.9,95,0.14,RA,,0.72,WeatherDisplay:10.37,2013-04-04 21:58:00,
2013-04-04 17:59:00,35.2,33.9,30.05,NE,56,9.2,9.2,95,0.14,RA,,0.72,WeatherDisplay:10.37,2013-04-04 21:59:00,
2013-04-04 18:01:00,35.3,34.0,30.05,North,5,3.5,3.5,95,0.15, +RA,,0.73,WeatherDisplay:10.37,2013-04-04 22:01:00,
2013-04-04 18:03:00,35.3,34.0,30.04,NE,53,5.8,5.8,95,0.16, +RA,,0.74,WeatherDisplay:10.37,2013-04-04 22:03:00,
2013-04-04 18:04:00,35.3,34.0,30.04,NE,41,6.9,6.9,95,0.16, +RA,,0.75,WeatherDisplay:10.37,2013-04-04 22:04:00,
2013-04-04 18:06:00,35.3,34.0,30.04,NNW,343,5.8,5.8,95,0.16, +RA,,0.75,WeatherDisplay:10.37,2013-04-04 22:06:00,
2013-04-04 18:07:00,35.2,33.9,30.05,ENE,62,7.0,8.8,95,0.15, +RA,,0.76,WeatherDisplay:10.37,2013-04-04 22:07:00,
2013-04-04 18:08:00,35.2,33.9,30.05,NNE,18,13.8,13.8,95,0.16, +RA,,0.76,WeatherDisplay:10.37,2013-04-04 22:08:00,
2013-04-04 18:09:00,35.2,33.9,30.05,NNW,327,10.5,10.5,95,0.17, +RA,,0.77,WeatherDisplay:10.37,2013-04-04 22:09:00,
2013-04-04 18:11:00,35.2,33.9,30.05,NW,315,10.4,10.4,95,0.18,-RA,,0.78,WeatherDisplay:10.37,2013-04-04 22:11:00,
2013-04-04 18:12:00,35.3,34.0,30.05,North,1,3.5,3.5,95,0.18,-RA,,0.79,WeatherDisplay:10.37,2013-04-04 22:12:00,
2013-04-04 18:15:00,35.2,33.9,30.06,ENE,58,5.8,5.8,95,0.20,-RA,,0.81,WeatherDisplay:10.37,2013-04-04 22:15:00,
2013-04-04 18:16:00,35.2,33.9,30.06,NNW,337,7.0,7.0,95,0.19,-RA,,0.82,WeatherDisplay:10.37,2013-04-04 22:16:00,
2013-04-04 18:20:00,35.2,33.9,30.06,ENE,68,3.5,3.5,95,0.20,-RA,,0.82,WeatherDisplay:10.37,2013-04-04 22:20:00,
2013-04-04 18:22:00,35.2,33.9,30.07,WNW,300,3.5,3.5,95,0.19,RA,,0.82,WeatherDisplay:10.37,2013-04-04 22:22:00,
2013-04-04 18:25:00,35.3,34.0,30.08,ESE,107,2.3,2.3,95,0.19,RA,,0.83,WeatherDisplay:10.37,2013-04-04 22:25:00,
2013-04-04 18:27:00,35.3,34.0,30.08,WNW,297,2.3,2.3,95,0.18,RA,,0.83,WeatherDisplay:10.37,2013-04-04 22:27:00,
2013-04-04 18:30:00,35.4,34.1,30.08,WNW,302,1.8,1.8,95,0.17,RA,,0.83,WeatherDisplay:10.37,2013-04-04 22:30:00,
2013-04-04 18:31:00,35.4,34.1,30.08,NE,46,3.5,3.5,95,0.17,RA,,0.83,WeatherDisplay:10.37,2013-04-04 22:31:00,
2013-04-04 18:32:00,35.3,34.0,30.08,NE,40,6.9,6.9,95,0.18,RA,,0.84,WeatherDisplay:10.37,2013-04-04 22:32:00,
2013-04-04 18:35:00,35.3,34.0,30.08,NNE,33,3.5,3.5,95,0.18,RA,,0.84,WeatherDisplay:10.37,2013-04-04 22:35:00,
2013-04-04 18:36:00,35.2,33.9,30.08,North,356,3.5,3.5,95,0.17,RA,,0.84,WeatherDisplay:10.37,2013-04-04 22:36:00,
2013-04-04 18:38:00,35.3,34.0,30.07,East,91,10.5,10.5,95,0.17,RA,,0.84,WeatherDisplay:10.37,2013-04-04 22:38:00,
2013-04-04 18:40:00,35.2,33.9,30.07,NNE,32,12.7,12.7,95,0.17,RA,,0.84,WeatherDisplay:10.37,2013-04-04 22:40:00,
2013-04-04 18:41:00,35.3,34.0,30.07,NNE,32,3.5,3.5,95,0.17,-RA,,0.84,WeatherDisplay:10.37,2013-04-04 22:41:00,
2013-04-04 18:43:00,35.3,34.0,30.07,NNE,25,2.3,2.3,95,0.17,-RA,,0.85,WeatherDisplay:10.37,2013-04-04 22:43:00,
2013-04-04 18:45:00,35.3,34.0,30.06,NE,56,5.3,5.3,95,0.18,-RA,,0.85,WeatherDisplay:10.37,2013-04-04 22:45:00,
2013-04-04 18:46:00,35.3,34.0,30.06,NE,45,7.0,7.0,95,0.18,-RA,,0.85,WeatherDisplay:10.37,2013-04-04 22:46:00,
2013-04-04 18:47:00,35.3,34.0,30.06,ENE,60,6.9,6.9,95,0.18,-RA,,0.85,WeatherDisplay:10.37,2013-04-04 22:47:00,
2013-04-04 18:48:00,35.2,33.9,30.06,North,354,6.9,6.9,95,0.18,-RA,,0.85,WeatherDisplay:10.37,2013-04-04 22:48:00,
2013-04-04 18:50:00,35.2,33.9,30.06,NE,36,5.8,5.8,95,0.18,-RA,,0.85,WeatherDisplay:10.37,2013-04-04 22:50:00,
2013-04-04 18:52:00,35.2,33.9,30.06,NE,36,7.0,7.0,95,0.18,-RA,,0.85,WeatherDisplay:10.37,2013-04-04 22:52:00,
2013-04-04 18:54:00,35.2,33.9,30.05,NE,40,7.0,7.0,95,0.18,-RA,,0.85,WeatherDisplay:10.37,2013-04-04 22:54:00,
2013-04-04 18:55:00,35.2,33.9,30.05,NE,47,6.9,6.9,95,0.17,-RA,,0.85,WeatherDisplay:10.37,2013-04-04 22:55:00,
2013-04-04 18:57:00,35.2,33.9,30.05,NW,314,3.5,3.5,95,0.15,-RA,,0.85,WeatherDisplay:10.37,2013-04-04 22:57:00,
2013-04-04 18:59:00,35.2,33.9,30.05,NNE,28,3.5,3.5,95,0.13,-RA,,0.85,WeatherDisplay:10.37,2013-04-04 22:59:00,
2013-04-04 19:00:00,35.2,33.9,30.05,NNW,338,6.9,6.9,95,0.12,-RA,,0.85,WeatherDisplay:10.37,2013-04-04 23:00:00,
2013-04-04 19:03:00,35.2,33.9,30.05,NNW,328,5.3,5.3,95,0.11,-RA,,0.85,WeatherDisplay:10.37,2013-04-04 23:03:00,
2013-04-04 19:04:00,35.2,33.9,30.05,North,359,5.8,5.8,95,0.10,-RA,,0.85,WeatherDisplay:10.37,2013-04-04 23:04:00,
2013-04-04 19:05:00,35.1,33.8,30.04,NE,38,7.0,7.0,95,0.10,-RA,,0.85,WeatherDisplay:10.37,2013-04-04 23:05:00,
2013-04-04 19:06:00,35.2,33.9,30.04,NE,47,9.2,9.2,95,0.10,-RA,,0.85,WeatherDisplay:10.37,2013-04-04 23:06:00,
2013-04-04 19:08:00,35.1,33.8,30.04,NNW,347,10.4,10.4,95,0.09,-RA,,0.85,WeatherDisplay:10.37,2013-04-04 23:08:00,
2013-04-04 19:09:00,35.1,33.8,30.03,NE,43,9.2,9.2,95,0.08,-RA,,0.85,WeatherDisplay:10.37,2013-04-04 23:09:00,
2013-04-04 19:10:00,35.1,33.8,30.03,NNE,21,9.2,9.2,95,0.08,-RA,,0.85,WeatherDisplay:10.37,2013-04-04 23:10:00,
2013-04-04 19:12:00,35.1,33.8,30.04,NW,315,6.9,6.9,95,0.07,-RA,,0.85,WeatherDisplay:10.37,2013-04-04 23:12:00,
2013-04-04 19:14:00,35.1,33.8,30.04,NW,315,3.5,3.5,95,0.05,-RA,,0.85,WeatherDisplay:10.37,2013-04-04 23:14:00,
2013-04-04 19:15:00,35.1,33.8,30.04,NNW,340,16.1,16.1,95,0.04,-RA,,0.85,WeatherDisplay:10.37,2013-04-04 23:15:00,
2013-04-04 19:17:00,35.1,33.8,30.04,West,259,5.8,5.8,95,0.03,-RA,,0.85,WeatherDisplay:10.37,2013-04-04 23:17:00,
2013-04-04 19:19:00,35.1,33.8,30.04,NNW,339,7.0,7.0,95,0.03,-RA,,0.85,WeatherDisplay:10.37,2013-04-04 23:19:00,
2013-04-04 19:20:00,35.1,33.8,30.04,NW,316,6.9,6.9,95,0.04,-RA,,0.86,WeatherDisplay:10.37,2013-04-04 23:20:00,
2013-04-04 19:21:00,35.1,33.8,30.04,WNW,285,6.9,6.9,95,0.04,-RA,,0.86,WeatherDisplay:10.37,2013-04-04 23:21:00,
2013-04-04 19:22:00,35.1,33.8,30.04,NNW,337,9.2,9.2,95,0.04,-RA,,0.86,WeatherDisplay:10.37,2013-04-04 23:22:00,
2013-04-04 19:24:00,35.0,33.7,30.04,NNW,338,7.0,7.0,95,0.03,-RA,,0.86,WeatherDisplay:10.37,2013-04-04 23:24:00,
2013-04-04 19:25:00,35.0,33.7,30.04,NNW,344,10.4,10.4,95,0.03,-RA,,0.86,WeatherDisplay:10.37,2013-04-04 23:25:00,
2013-04-04 19:26:00,35.0,33.7,30.04,NNW,340,7.0,7.0,95,0.03,-RA,,0.86,WeatherDisplay:10.37,2013-04-04 23:26:00,
2013-04-04 19:27:00,35.0,33.7,30.04,North,3,6.9,6.9,95,0.03,-RA,,0.86,WeatherDisplay:10.37,2013-04-04 23:27:00,
2013-04-04 19:30:00,35.0,33.7,30.04,NNW,332,6.9,6.9,95,0.04,-RA,,0.87,WeatherDisplay:10.37,2013-04-04 23:30:00,
2013-04-04 19:32:00,35.0,33.7,30.04,ENE,61,10.4,10.4,95,0.04, +RA,,0.87,WeatherDisplay:10.37,2013-04-04 23:32:00,
2013-04-04 19:35:00,35.0,33.7,30.04,NE,41,13.8,13.8,95,0.03, +RA,,0.87,WeatherDisplay:10.37,2013-04-04 23:35:00,
2013-04-04 19:36:00,34.9,33.6,30.04,NNE,19,10.5,10.5,95,0.03, +RA,,0.87,WeatherDisplay:10.37,2013-04-04 23:36:00,
2013-04-04 19:37:00,34.9,33.6,30.04,ESE,102,12.7,12.7,95,0.03, +RA,,0.87,WeatherDisplay:10.37,2013-04-04 23:37:00,
2013-04-04 19:40:00,34.9,33.6,30.04,NE,55,13.8,13.8,95,0.03, +RA,,0.87,WeatherDisplay:10.37,2013-04-04 23:40:00,
2013-04-04 19:41:00,35.0,33.7,30.04,NNE,27,9.2,9.2,95,0.03, +RA,,0.87,WeatherDisplay:10.37,2013-04-04 23:41:00,
2013-04-04 19:42:00,34.9,33.6,30.04,NW,322,9.2,9.2,95,0.03, +RA,,0.87,WeatherDisplay:10.37,2013-04-04 23:42:00,
2013-04-04 19:46:00,35.0,33.7,30.03,NW,307,6.9,6.9,95,0.03, +RA,,0.88,WeatherDisplay:10.37,2013-04-04 23:46:00,
2013-04-04 19:47:00,34.9,33.6,30.03,North,353,5.8,5.8,95,0.03, +RA,,0.88,WeatherDisplay:10.37,2013-04-04 23:47:00,
2013-04-04 19:51:00,34.9,33.6,30.03,NW,325,13.8,13.8,95,0.03,RA,,0.88,WeatherDisplay:10.37,2013-04-04 23:51:00,
2013-04-04 19:52:00,34.9,33.6,30.03,West,269,7.0,7.0,95,0.03,RA,,0.88,WeatherDisplay:10.37,2013-04-04 23:52:00,
2013-04-04 19:53:00,34.9,33.6,30.03,North,10,12.7,12.7,95,0.03,RA,,0.88,WeatherDisplay:10.37,2013-04-04 23:53:00,
2013-04-04 19:56:00,34.9,33.6,30.02,NNE,12,16.1,16.1,95,0.03,RA,,0.88,WeatherDisplay:10.37,2013-04-04 23:56:00,
2013-04-04 19:57:00,34.9,33.6,30.02,NE,43,13.8,13.8,95,0.03,RA,,0.88,WeatherDisplay:10.37,2013-04-04 23:57:00,
2013-04-04 19:58:00,34.9,33.6,30.02,NE,51,13.8,13.8,95,0.03,RA,,0.88,WeatherDisplay:10.37,2013-04-04 23:58:00,
2013-04-04 20:01:00,34.9,33.6,30.01,NW,319,6.9,6.9,95,0.03,-RA,,0.88,WeatherDisplay:10.37,2013-04-05 00:01:00,
2013-04-04 20:02:00,34.8,33.5,30.02,WSW,258,6.9,6.9,95,0.03,-RA,,0.88,WeatherDisplay:10.37,2013-04-05 00:02:00,
2013-04-04 20:03:00,34.8,33.5,30.02,NNW,328,5.8,5.8,95,0.03,-RA,,0.89,WeatherDisplay:10.37,2013-04-05 00:03:00,
2013-04-04 20:06:00,34.9,33.9,30.02,NNW,332,3.5,3.5,96,0.05,-RA,,0.90,WeatherDisplay:10.37,2013-04-05 00:06:00,
2013-04-04 20:07:00,34.9,33.9,30.02,ENE,61,3.5,3.5,96,0.05,-RA,,0.90,WeatherDisplay:10.37,2013-04-05 00:07:00,
2013-04-04 20:08:00,34.9,33.9,30.02,NW,325,5.3,5.3,96,0.05,-RA,,0.90,WeatherDisplay:10.37,2013-04-05 00:08:00,
2013-04-04 20:12:00,34.8,33.5,30.02,NE,47,10.4,10.4,95,0.06,-RA,,0.91,WeatherDisplay:10.37,2013-04-05 00:12:00,
2013-04-04 20:13:00,34.8,33.5,30.02,NW,316,6.9,6.9,95,0.06,-RA,,0.91,WeatherDisplay:10.37,2013-04-05 00:13:00,
2013-04-04 20:17:00,34.9,33.9,30.03,NE,36,2.3,2.3,96,0.07,-RA,,0.92,WeatherDisplay:10.37,2013-04-05 00:17:00,
2013-04-04 20:18:00,34.9,33.9,30.03,NE,36,2.3,2.3,96,0.07,-RA,,0.92,WeatherDisplay:10.37,2013-04-05 00:18:00,
2013-04-04 20:19:00,34.9,33.9,30.03,NE,44,2.3,2.3,96,0.06,-RA,,0.92,WeatherDisplay:10.37,2013-04-05 00:19:00,
2013-04-04 20:23:00,34.9,33.9,30.02,NNE,32,5.8,5.8,96,0.06,-RA,,0.92,WeatherDisplay:10.37,2013-04-05 00:23:00,
2013-04-04 20:24:00,34.9,33.9,30.02,NE,53,5.8,5.8,96,0.06,-RA,,0.92,WeatherDisplay:10.37,2013-04-05 00:24:00,
2013-04-04 20:25:00,34.9,33.9,30.02,North,11,5.8,5.8,96,0.06,-RA,,0.92,WeatherDisplay:10.37,2013-04-05 00:25:00,
2013-04-04 20:28:00,34.9,33.9,30.02,ENE,61,9.2,9.2,96,0.07,-RA,,0.93,WeatherDisplay:10.37,2013-04-05 00:28:00,
2013-04-04 20:29:00,34.9,33.9,30.02,North,5,9.2,9.2,96,0.06,-RA,,0.93,WeatherDisplay:10.37,2013-04-05 00:29:00,
2013-04-04 20:30:00,34.9,33.9,30.02,NW,314,9.2,9.2,96,0.06,-RA,,0.93,WeatherDisplay:10.37,2013-04-05 00:30:00,
2013-04-04 20:35:00,34.9,33.9,30.02,WNW,293,2.3,2.3,96,0.06,-RA,,0.93,WeatherDisplay:10.37,2013-04-05 00:35:00,
2013-04-04 20:36:00,34.9,33.9,30.02,North,358,2.3,2.3,96,0.06,-RA,,0.93,WeatherDisplay:10.37,2013-04-05 00:36:00,
2013-04-04 20:40:00,34.9,33.9,30.02,NNE,20,3.5,3.5,96,0.06,-RA,,0.93,WeatherDisplay:10.37,2013-04-05 00:40:00,
2013-04-04 20:41:00,34.9,33.9,30.02,NNE,32,6.9,6.9,96,0.06,-RA,,0.93,WeatherDisplay:10.37,2013-04-05 00:41:00,
2013-04-04 20:42:00,34.9,33.9,30.02,NNE,32,3.5,3.5,96,0.06,-RA,,0.93,WeatherDisplay:10.37,2013-04-05 00:42:00,
2013-04-04 20:45:00,34.9,33.9,30.02,NW,311,5.8,5.8,96,0.05,-RA,,0.93,WeatherDisplay:10.37,2013-04-05 00:45:00,
2013-04-04 20:46:00,34.9,33.9,30.02,NW,316,12.7,12.7,96,0.05,-RA,,0.93,WeatherDisplay:10.37,2013-04-05 00:46:00,
2013-04-04 20:47:00,34.9,33.9,30.02,SW,217,12.7,12.7,96,0.05,-RA,,0.93,WeatherDisplay:10.37,2013-04-05 00:47:00,
2013-04-04 20:51:00,34.9,33.9,30.02,NW,318,3.5,3.5,96,0.05,-RA,,0.93,WeatherDisplay:10.37,2013-04-05 00:51:00,
2013-04-04 20:52:00,35.0,34.0,30.02,WNW,285,3.5,3.5,96,0.05,-RA,,0.93,WeatherDisplay:10.37,2013-04-05 00:52:00,
2013-04-04 20:56:00,34.9,33.9,30.02,NE,43,3.5,3.5,96,0.05,-RA,,0.93,WeatherDisplay:10.37,2013-04-05 00:56:00,
2013-04-04 20:57:00,34.9,33.9,30.02,NE,43,3.5,3.5,96,0.05,-RA,,0.93,WeatherDisplay:10.37,2013-04-05 00:57:00,
2013-04-04 21:01:00,34.9,33.9,30.02,NW,312,2.3,2.3,96,0.05,-RA,,0.93,WeatherDisplay:10.37,2013-04-05 01:01:00,
2013-04-04 21:02:00,35.0,34.0,30.02,North,1,3.5,3.5,96,0.05,-RA,,0.94,WeatherDisplay:10.37,2013-04-05 01:02:00,
2013-04-04 21:06:00,34.9,33.9,30.02,NW,324,9.2,9.2,96,0.04,-RA,,0.94,WeatherDisplay:10.37,2013-04-05 01:06:00,
2013-04-04 21:07:00,34.9,33.9,30.02,East,79,5.8,5.8,96,0.04,-RA,,0.94,WeatherDisplay:10.37,2013-04-05 01:07:00,
2013-04-04 21:09:00,34.9,33.9,30.02,NNE,32,6.9,6.9,96,0.04,-RA,,0.94,WeatherDisplay:10.37,2013-04-05 01:09:00,
2013-04-04 21:11:00,34.9,33.9,30.02,NNW,343,5.8,5.8,96,0.03,-RA,,0.94,WeatherDisplay:10.37,2013-04-05 01:11:00,
2013-04-04 21:12:00,35.0,34.0,30.02,ENE,58,5.8,5.8,96,0.03,-RA,,0.94,WeatherDisplay:10.37,2013-04-05 01:12:00,
2013-04-04 21:15:00,35.0,34.0,30.02,NW,311,3.5,3.5,96,0.02,-RA,,0.94,WeatherDisplay:10.37,2013-04-05 01:15:00,
2013-04-04 21:17:00,35.0,34.0,30.02,NW,319,6.9,6.9,96,0.02,-RA,,0.94,WeatherDisplay:10.37,2013-04-05 01:17:00,
2013-04-04 21:18:00,35.0,34.0,30.02,North,7,5.3,5.3,96,0.02,-RA,,0.94,WeatherDisplay:10.37,2013-04-05 01:18:00,
2013-04-04 21:20:00,35.0,34.0,30.02,North,349,3.5,3.5,96,0.02,-RA,,0.94,WeatherDisplay:10.37,2013-04-05 01:20:00,
2013-04-04 21:22:00,35.0,34.0,30.02,North,351,0.0,0.0,96,0.02,-RA,,0.94,WeatherDisplay:10.37,2013-04-05 01:22:00,
2013-04-04 21:23:00,35.0,34.0,30.02,ENE,75,3.5,3.5,96,0.02,-RA,,0.94,WeatherDisplay:10.37,2013-04-05 01:23:00,
2013-04-04 21:25:00,35.1,34.1,30.02,ENE,68,3.5,3.5,96,0.02,-RA,,0.94,WeatherDisplay:10.37,2013-04-05 01:25:00,
2013-04-04 21:27:00,35.0,34.0,30.02,NNW,329,5.8,5.8,96,0.02,-RA,,0.94,WeatherDisplay:10.37,2013-04-05 01:27:00,
2013-04-04 21:28:00,35.1,34.1,30.02,NNW,327,6.9,6.9,96,0.01,-RA,,0.94,WeatherDisplay:10.37,2013-04-05 01:28:00,
2013-04-04 21:30:00,35.0,34.0,30.02,NE,43,5.8,5.8,96,0.01,-RA,,0.94,WeatherDisplay:10.37,2013-04-05 01:30:00,
2013-04-04 21:32:00,35.0,34.0,30.02,NW,324,3.5,3.5,96,0.01,-RA,,0.94,WeatherDisplay:10.37,2013-04-05 01:32:00,
2013-04-04 21:33:00,35.1,34.1,30.02,North,359,3.5,3.5,96,0.01,-RA,,0.94,WeatherDisplay:10.37,2013-04-05 01:33:00,
2013-04-04 21:34:00,35.1,34.1,30.02,North,349,3.5,3.5,96,0.01,-RA,,0.94,WeatherDisplay:10.37,2013-04-05 01:34:00,
2013-04-04 21:36:00,35.1,34.1,30.02,ENE,63,6.9,6.9,96,0.01,-RA,,0.94,WeatherDisplay:10.37,2013-04-05 01:36:00,
2013-04-04 21:37:00,35.1,34.1,30.02,NNW,333,5.8,5.8,96,0.01,-RA,,0.94,WeatherDisplay:10.37,2013-04-05 01:37:00,
2013-04-04 21:39:00,35.1,34.1,30.02,North,357,2.3,2.7,96,0.01,-RA,,0.94,WeatherDisplay:10.37,2013-04-05 01:39:00,
2013-04-04 21:41:00,35.1,34.1,30.02,North,354,3.5,3.5,96,0.01,-RA,,0.94,WeatherDisplay:10.37,2013-04-05 01:41:00,
2013-04-04 21:42:00,35.1,34.1,30.02,WNW,295,3.5,3.5,96,0.01,-RA,,0.94,WeatherDisplay:10.37,2013-04-05 01:42:00,
2013-04-04 21:44:00,35.1,34.1,30.02,NNW,330,7.0,7.0,96,0.01,-RA,,0.94,WeatherDisplay:10.37,2013-04-05 01:44:00,
2013-04-04 21:46:00,35.1,34.1,30.02,NW,315,5.8,5.8,96,0.01,-RA,,0.94,WeatherDisplay:10.37,2013-04-05 01:46:00,
2013-04-04 21:49:00,35.2,34.2,30.02,North,352,9.2,9.2,96,0.01,-RA,,0.94,WeatherDisplay:10.37,2013-04-05 01:49:00,
2013-04-04 21:50:00,35.1,34.1,30.01,North,358,3.5,3.5,96,0.01,-RA,,0.94,WeatherDisplay:10.37,2013-04-05 01:50:00,
2013-04-04 21:51:00,35.2,34.2,30.01,NE,47,3.5,3.5,96,0.01,-RA,,0.94,WeatherDisplay:10.37,2013-04-05 01:51:00,
2013-04-04 21:54:00,35.2,34.2,30.01,North,354,6.9,6.9,96,0.01,-RA,,0.94,WeatherDisplay:10.37,2013-04-05 01:54:00,
2013-04-04 21:55:00,35.2,34.2,30.01,NNW,337,6.9,6.9,96,0.01,-RA,,0.94,WeatherDisplay:10.37,2013-04-05 01:55:00,
2013-04-04 21:56:00,35.2,34.2,30.01,NNW,330,2.3,2.3,96,0.01,-RA,,0.94,WeatherDisplay:10.37,2013-04-05 01:56:00,
2013-04-04 22:00:00,35.1,34.1,30.01,NNW,328,5.8,5.8,96,0.01,-RA,,0.94,WeatherDisplay:10.37,2013-04-05 02:00:00,
2013-04-04 22:02:00,35.2,34.2,30.01,North,7,2.3,2.3,96,0.01,OVC,,0.94,WeatherDisplay:10.37,2013-04-05 02:02:00,
2013-04-04 22:05:00,35.2,34.2,30.01,NNW,337,7.0,7.0,96,0.00,OVC,,0.94,WeatherDisplay:10.37,2013-04-05 02:05:00,
2013-04-04 22:06:00,35.2,34.2,30.01,North,353,9.2,9.2,96,0.00,OVC,,0.94,WeatherDisplay:10.37,2013-04-05 02:06:00,
2013-04-04 22:07:00,35.2,34.2,30.01,North,6,6.9,6.9,96,0.00,OVC,,0.94,WeatherDisplay:10.37,2013-04-05 02:07:00,
2013-04-04 22:10:00,35.2,34.2,30.01,NNW,342,3.5,3.5,96,0.00,OVC,,0.94,WeatherDisplay:10.37,2013-04-05 02:10:00,
2013-04-04 22:12:00,35.2,34.2,30.01,NNW,336,3.5,3.5,96,0.00,OVC,,0.94,WeatherDisplay:10.37,2013-04-05 02:12:00,
2013-04-04 22:16:00,35.2,34.2,30.01,NW,319,0.0,0.0,96,0.00,OVC,,0.94,WeatherDisplay:10.37,2013-04-05 02:16:00,
2013-04-04 22:17:00,35.2,34.2,30.01,NNE,20,5.8,5.8,96,0.00,OVC,,0.94,WeatherDisplay:10.37,2013-04-05 02:17:00,
2013-04-04 22:18:00,35.2,34.2,30.01,NNE,20,5.8,5.8,96,0.00,OVC,,0.94,WeatherDisplay:10.37,2013-04-05 02:18:00,
2013-04-04 22:21:00,35.2,34.2,30.01,NW,316,6.9,6.9,96,0.00,OVC,,0.94,WeatherDisplay:10.37,2013-04-05 02:21:00,
2013-04-04 22:23:00,35.2,34.2,30.01,NNE,18,5.8,5.8,96,0.00,OVC,,0.94,WeatherDisplay:10.37,2013-04-05 02:23:00,
2013-04-04 22:27:00,35.2,34.2,30.00,NNW,330,8.7,8.7,96,0.00,OVC,,0.94,WeatherDisplay:10.37,2013-04-05 02:27:00,
2013-04-04 22:28:00,35.2,34.2,30.00,NE,53,9.2,9.2,96,0.00,OVC,,0.94,WeatherDisplay:10.37,2013-04-05 02:28:00,
2013-04-04 22:32:00,35.3,34.3,30.00,NW,325,3.5,3.5,96,0.00,OVC,,0.94,WeatherDisplay:10.37,2013-04-05 02:32:00,
2013-04-04 22:33:00,35.3,34.3,30.00,ENE,61,3.5,3.5,96,0.00,OVC,,0.94,WeatherDisplay:10.37,2013-04-05 02:33:00,
2013-04-04 22:37:00,35.3,34.3,30.00,NW,316,2.3,2.3,96,0.00,OVC,,0.94,WeatherDisplay:10.37,2013-04-05 02:37:00,
2013-04-04 22:38:00,35.3,34.3,30.00,NNW,329,3.5,3.5,96,0.00,OVC,,0.94,WeatherDisplay:10.37,2013-04-05 02:38:00,
2013-04-04 22:39:00,35.3,34.3,30.00,ENE,71,5.8,5.8,96,0.00,OVC,,0.94,WeatherDisplay:10.37,2013-04-05 02:39:00,
2013-04-04 22:42:00,35.3,34.3,30.00,NNW,328,5.8,5.8,96,0.00,OVC,,0.94,WeatherDisplay:10.37,2013-04-05 02:42:00,
2013-04-04 22:43:00,35.3,34.3,30.00,NE,52,6.9,6.9,96,0.00,OVC,,0.94,WeatherDisplay:10.37,2013-04-05 02:43:00,
2013-04-04 22:44:00,35.3,34.3,30.00,NE,52,5.8,5.8,96,0.00,OVC,,0.94,WeatherDisplay:10.37,2013-04-05 02:44:00,
2013-04-04 22:45:00,35.3,34.3,30.00,North,11,2.3,2.3,96,0.00,OVC,,0.94,WeatherDisplay:10.37,2013-04-05 02:45:00,
2013-04-04 22:47:00,35.3,34.3,30.00,ENE,62,5.8,5.8,96,0.00,OVC,,0.94,WeatherDisplay:10.37,2013-04-05 02:47:00,
2013-04-04 22:48:00,35.3,34.3,29.99,NE,44,3.5,3.5,96,0.00,OVC,,0.94,WeatherDisplay:10.37,2013-04-05 02:48:00,
2013-04-04 22:49:00,35.3,34.3,30.00,NE,44,5.8,5.8,96,0.00,OVC,,0.94,WeatherDisplay:10.37,2013-04-05 02:49:00,
2013-04-04 22:50:00,35.3,34.3,30.00,NNE,15,2.3,2.3,96,0.00,OVC,,0.94,WeatherDisplay:10.37,2013-04-05 02:50:00,
2013-04-04 22:52:00,35.3,34.3,30.00,NNW,328,6.9,6.9,96,0.00,OVC,,0.94,WeatherDisplay:10.37,2013-04-05 02:52:00,
2013-04-04 22:53:00,35.3,34.3,30.00,NNW,337,3.5,3.5,96,0.00,OVC,,0.94,WeatherDisplay:10.37,2013-04-05 02:53:00,
2013-04-04 22:54:00,35.3,34.3,30.00,North,3,3.5,3.5,96,0.00,OVC,,0.94,WeatherDisplay:10.37,2013-04-05 02:54:00,
2013-04-04 22:55:00,35.3,34.3,30.00,North,349,5.8,5.8,96,0.00,OVC,,0.94,WeatherDisplay:10.37,2013-04-05 02:55:00,
2013-04-04 22:57:00,35.3,34.3,30.00,NW,325,5.3,5.3,96,0.00,OVC,,0.94,WeatherDisplay:10.37,2013-04-05 02:57:00,
2013-04-04 22:59:00,35.3,34.3,30.00,NNW,328,6.9,6.9,96,0.00,OVC,,0.94,WeatherDisplay:10.37,2013-04-05 02:59:00,
2013-04-04 23:00:00,35.3,34.3,29.99,North,1,3.5,3.5,96,0.00,OVC,,0.94,WeatherDisplay:10.37,2013-04-05 03:00:00,
2013-04-04 23:02:00,35.4,34.4,29.99,NE,44,3.5,3.5,96,0.00,OVC,,0.94,WeatherDisplay:10.37,2013-04-05 03:02:00,
2013-04-04 23:04:00,35.4,34.4,29.99,NW,325,6.9,6.9,96,0.00,OVC,,0.94,WeatherDisplay:10.37,2013-04-05 03:04:00,
2013-04-04 23:05:00,35.4,34.4,29.99,NW,326,6.9,6.9,96,0.00,OVC,,0.94,WeatherDisplay:10.37,2013-04-05 03:05:00,
2013-04-04 23:07:00,35.4,34.4,29.99,NNE,19,5.8,5.8,96,0.00,OVC,,0.94,WeatherDisplay:10.37,2013-04-05 03:07:00,
2013-04-04 23:10:00,35.4,34.4,29.99,NW,325,2.3,2.3,96,0.00,OVC,,0.94,WeatherDisplay:10.37,2013-04-05 03:10:00,
2013-04-04 23:11:00,35.4,34.4,29.99,North,360,5.8,5.8,96,0.00,OVC,,0.94,WeatherDisplay:10.37,2013-04-05 03:11:00,
2013-04-04 23:13:00,35.4,34.4,29.99,East,79,2.3,2.3,96,0.00,OVC,,0.94,WeatherDisplay:10.37,2013-04-05 03:13:00,
2013-04-04 23:15:00,35.5,34.5,29.99,NE,56,3.5,3.5,96,0.00,OVC,,0.94,WeatherDisplay:10.37,2013-04-05 03:15:00,
2013-04-04 23:16:00,35.4,34.4,29.99,North,6,3.5,3.5,96,0.00,OVC,,0.94,WeatherDisplay:10.37,2013-04-05 03:16:00,
2013-04-04 23:18:00,35.5,34.5,29.98,NNE,20,2.3,0.0,96,0.00,OVC,,0.94,WeatherDisplay:10.37,2013-04-05 03:18:00,
2013-04-04 23:21:00,35.5,34.5,29.98,NE,49,6.9,6.9,96,0.00,OVC,,0.94,WeatherDisplay:10.37,2013-04-05 03:21:00,
2013-04-04 23:22:00,35.5,34.5,29.98,NE,55,6.9,6.9,96,0.00,OVC,,0.94,WeatherDisplay:10.37,2013-04-05 03:22:00,
2013-04-04 23:23:00,35.5,34.5,29.98,NE,56,6.9,6.9,96,0.00,OVC,,0.94,WeatherDisplay:10.37,2013-04-05 03:23:00,
2013-04-04 23:26:00,35.5,34.5,29.98,NNE,26,3.5,3.5,96,0.00,OVC,,0.94,WeatherDisplay:10.37,2013-04-05 03:26:00,
2013-04-04 23:27:00,35.5,34.5,29.98,NNE,32,5.8,5.8,96,0.00,OVC,,0.94,WeatherDisplay:10.37,2013-04-05 03:27:00,
2013-04-04 23:28:00,35.5,34.5,29.98,East,80,2.3,2.3,96,0.00,OVC,,0.94,WeatherDisplay:10.37,2013-04-05 03:28:00,
2013-04-04 23:31:00,35.5,34.5,29.98,ENE,72,2.3,2.3,96,0.00,OVC,,0.94,WeatherDisplay:10.37,2013-04-05 03:31:00,
2013-04-04 23:32:00,35.6,34.6,29.98,ENE,72,0.0,0.0,96,0.00,OVC,,0.94,WeatherDisplay:10.37,2013-04-05 03:32:00,
2013-04-04 23:33:00,35.6,34.6,29.98,ENE,72,0.0,0.0,96,0.00,OVC,,0.94,WeatherDisplay:10.37,2013-04-05 03:33:00,
2013-04-04 23:36:00,35.6,34.6,29.98,NNE,25,3.5,3.5,96,0.00,OVC,,0.94,WeatherDisplay:10.37,2013-04-05 03:36:00,
2013-04-04 23:38:00,35.6,34.6,29.98,WNW,298,3.5,3.5,96,0.00,OVC,,0.94,WeatherDisplay:10.37,2013-04-05 03:38:00,
2013-04-04 23:39:00,35.6,34.6,29.98,NW,307,3.5,3.5,96,0.00,OVC,,0.94,WeatherDisplay:10.37,2013-04-05 03:39:00,
2013-04-04 23:42:00,35.6,34.6,29.98,NE,49,5.8,5.8,96,0.00,OVC,,0.94,WeatherDisplay:10.37,2013-04-05 03:42:00,
2013-04-04 23:43:00,35.6,34.6,29.98,NW,312,5.8,5.8,96,0.00,OVC,,0.94,WeatherDisplay:10.37,2013-04-05 03:43:00,
2013-04-04 23:44:00,35.6,34.6,29.98,NW,312,2.3,2.3,96,0.00,OVC,,0.94,WeatherDisplay:10.37,2013-04-05 03:44:00,
2013-04-04 23:47:00,35.6,34.6,29.98,SSW,208,3.5,3.5,96,0.00,OVC,,0.94,WeatherDisplay:10.37,2013-04-05 03:47:00,
2013-04-04 23:48:00,35.6,34.6,29.98,SSW,209,3.5,3.5,96,0.00,OVC,,0.94,WeatherDisplay:10.37,2013-04-05 03:48:00,
2013-04-04 23:49:00,35.7,34.7,29.98,SSW,208,2.3,2.3,96,0.00,OVC,,0.94,WeatherDisplay:10.37,2013-04-05 03:49:00,
2013-04-04 23:52:00,35.7,34.7,29.98,NNW,327,2.3,2.3,96,0.00,OVC,,0.94,WeatherDisplay:10.37,2013-04-05 03:52:00,
2013-04-04 23:53:00,35.7,34.7,29.98,NNE,12,3.5,3.5,96,0.00,OVC,,0.94,WeatherDisplay:10.37,2013-04-05 03:53:00,
2013-04-04 23:54:00,35.7,34.7,29.98,North,352,5.8,5.8,96,0.00,OVC,,0.94,WeatherDisplay:10.37,2013-04-05 03:54:00,
2013-04-04 23:57:00,35.7,34.7,29.97,NW,313,3.5,3.5,96,0.00,OVC,,0.94,WeatherDisplay:10.37,2013-04-05 03:57:00,
2013-04-04 23:58:00,35.7,34.7,29.97,NW,313,2.3,2.3,96,0.00,OVC,,0.94,WeatherDisplay:10.37,2013-04-05 03:58:00,